UAE771 FACT-OMDB

Flight info

Callsign UAE771
Flight time 8h 55m
Altitude 37000
Route TETAN1B TETAN UZ39 BLV DCT TEVAP UG467 EXEMA DCT VBR UM310 DV UL437 VEDET B400 DAXAM Y414 DEDSO R401 PEDOG Q308 KIPOK Q568 IMPED
Aircraft A388/J-SADE2E3FGHIJ3J4J5M1RWXY/LB1D1

Departure

Time 2026-04-24 22:36
Airport Cape Town International Airport (FACT)

Arrival

Time 2026-04-25 07:32
Airport Dubai International Airport (OMDB)
Time Latitude Longitude Altitude Speed Heading
2026-04-24 21:40 -33.96896 18.59825 159 ft 0 kts 255°
2026-04-24 22:27 -33.96891 18.59847 159 ft 3 kts 255°
2026-04-24 22:27 -33.96887 18.59873 159 ft 4 kts 281°
2026-04-24 22:27 -33.96899 18.59897 159 ft 4 kts 332°
2026-04-24 22:28 -33.96923 18.59908 159 ft 4 kts 345°
2026-04-24 22:28 -33.96943 18.59914 159 ft 0 kts 345°
2026-04-24 22:33 -33.96934 18.59911 159 ft 5 kts 345°
2026-04-24 22:33 -33.96874 18.59891 159 ft 12 kts 345°
2026-04-24 22:33 -33.96768 18.59856 159 ft 19 kts 345°
2026-04-24 22:33 -33.96642 18.59815 159 ft 19 kts 346°
2026-04-24 22:34 -33.96526 18.59780 159 ft 18 kts 347°
2026-04-24 22:34 -33.96417 18.59752 159 ft 17 kts 354°
2026-04-24 22:34 -33.96302 18.59734 159 ft 17 kts 352°
2026-04-24 22:34 -33.96194 18.59765 158 ft 16 kts 39°
2026-04-24 22:35 -33.96116 18.59864 160 ft 16 kts 47°
2026-04-24 22:35 -33.96063 18.59971 159 ft 11 kts 93°
2026-04-24 22:35 -33.96104 18.60038 159 ft 12 kts 153°
2026-04-24 22:35 -33.96320 18.60111 158 ft 66 kts 165°
2026-04-24 22:36 -33.96988 18.60324 160 ft 131 kts 165°
2026-04-24 22:36 -33.97984 18.60641 159 ft 172 kts 165°
2026-04-24 22:36 -33.99047 18.60993 548 ft 170 kts 164°
2026-04-24 22:36 -34.00054 18.61325 973 ft 173 kts 164°
2026-04-24 22:37 -34.01254 18.61710 1382 ft 181 kts 164°
2026-04-24 22:37 -34.02440 18.62088 1815 ft 186 kts 164°
2026-04-24 22:37 -34.03773 18.62516 1988 ft 204 kts 164°
2026-04-24 22:37 -34.05197 18.62980 2169 ft 223 kts 164°
2026-04-24 22:38 -34.06754 18.63488 2370 ft 245 kts 164°
2026-04-24 22:38 -34.08452 18.64034 2588 ft 265 kts 164°
2026-04-24 22:38 -34.10287 18.64627 3036 ft 274 kts 164°
2026-04-24 22:38 -34.12130 18.65227 3576 ft 279 kts 164°
2026-04-24 22:39 -34.14011 18.65849 4144 ft 283 kts 164°
2026-04-24 22:39 -34.15936 18.66495 4730 ft 288 kts 164°
2026-04-24 22:39 -34.17878 18.67158 5279 ft 291 kts 164°
2026-04-24 22:39 -34.19825 18.67827 5907 ft 294 kts 164°
2026-04-24 22:40 -34.21814 18.68515 6508 ft 296 kts 164°
2026-04-24 22:40 -34.23799 18.69204 7067 ft 298 kts 166°
2026-04-24 22:40 -34.25831 18.69734 7607 ft 301 kts 167°
2026-04-24 22:40 -34.27761 18.70723 8147 ft 304 kts 143°
2026-04-24 22:41 -34.29196 18.72576 8679 ft 305 kts 118°
2026-04-24 22:41 -34.29877 18.74944 9219 ft 303 kts 93°
2026-04-24 22:41 -34.29693 18.77487 9733 ft 300 kts 68°
2026-04-24 22:41 -34.29101 18.78993 10009 ft 300 kts 52°
2026-04-24 22:42 -34.27019 18.81215 10198 ft 311 kts 24°
2026-04-24 22:42 -34.25049 18.82357 10332 ft 325 kts 23°
2026-04-24 22:42 -34.23018 18.83733 10544 ft 338 kts 30°
2026-04-24 22:42 -34.21080 18.85385 11023 ft 342 kts 34°
2026-04-24 22:43 -34.19207 18.87194 11493 ft 347 kts 37°
2026-04-24 22:43 -34.17372 18.89071 11979 ft 350 kts 37°
2026-04-24 22:43 -34.15522 18.90998 12476 ft 352 kts 38°
2026-04-24 22:43 -34.13636 18.92966 12960 ft 356 kts 38°
2026-04-24 22:44 -34.11778 18.94899 13457 ft 359 kts 38°
2026-04-24 22:44 -34.09862 18.96886 13926 ft 362 kts 38°
2026-04-24 22:44 -34.07964 18.98852 14354 ft 364 kts 37°
2026-04-24 22:44 -34.06006 19.00875 14796 ft 367 kts 37°
2026-04-24 22:45 -34.04079 19.02866 15210 ft 370 kts 37°
2026-04-24 22:45 -34.02114 19.04893 15615 ft 373 kts 37°
2026-04-24 22:45 -34.00125 19.06945 16021 ft 375 kts 37°
2026-04-24 22:45 -33.98152 19.08978 16395 ft 378 kts 37°
2026-04-24 22:46 -33.96146 19.11045 16818 ft 381 kts 37°
2026-04-24 22:46 -33.94121 19.13128 17219 ft 385 kts 37°
2026-04-24 22:46 -33.92083 19.15224 17623 ft 388 kts 38°
2026-04-24 22:46 -33.90015 19.17351 18008 ft 390 kts 38°
2026-04-24 22:47 -33.87944 19.19479 18385 ft 392 kts 37°
2026-04-24 22:47 -33.85878 19.21601 18754 ft 393 kts 38°
2026-04-24 22:47 -33.83791 19.23745 19054 ft 396 kts 37°
2026-04-24 22:47 -33.81680 19.25911 19415 ft 398 kts 37°
2026-04-24 22:48 -33.79566 19.28076 19797 ft 399 kts 37°
2026-04-24 22:48 -33.77451 19.30241 20113 ft 402 kts 37°
2026-04-24 22:48 -33.75308 19.32432 20449 ft 404 kts 37°
2026-04-24 22:48 -33.73161 19.34627 20769 ft 406 kts 37°
2026-04-24 22:49 -33.71003 19.36833 21121 ft 408 kts 37°
2026-04-24 22:49 -33.68880 19.39009 21449 ft 410 kts 39°
2026-04-24 22:49 -33.66874 19.41516 21765 ft 416 kts 48°
2026-04-24 22:49 -33.65224 19.44377 22092 ft 421 kts 57°
2026-04-24 22:50 -33.63899 19.47538 22389 ft 425 kts 62°
2026-04-24 22:50 -33.63035 19.49708 22586 ft 427 kts 62°
2026-04-24 22:50 -33.61316 19.53956 23017 ft 429 kts 62°
2026-04-24 22:50 -33.59999 19.57186 23356 ft 431 kts 62°
2026-04-24 22:51 -33.58676 19.60423 23632 ft 434 kts 62°
2026-04-24 22:51 -33.57347 19.63673 23915 ft 435 kts 62°
2026-04-24 22:51 -33.56017 19.66927 24241 ft 436 kts 62°
2026-04-24 22:51 -33.55107 19.69150 24389 ft 438 kts 62°
2026-04-24 22:52 -33.53785 19.72380 24670 ft 439 kts 62°
2026-04-24 22:52 -33.52430 19.75687 24971 ft 441 kts 62°
2026-04-24 22:52 -33.51073 19.78994 25253 ft 442 kts 61°
2026-04-24 22:52 -33.49713 19.82305 25516 ft 445 kts 62°
2026-04-24 22:53 -33.48348 19.85628 25789 ft 447 kts 62°
2026-04-24 22:53 -33.46964 19.88993 26118 ft 449 kts 62°
2026-04-24 22:53 -33.45584 19.92346 26427 ft 450 kts 62°
2026-04-24 22:53 -33.44194 19.95720 26732 ft 452 kts 62°
2026-04-24 22:54 -33.42802 19.99093 27053 ft 454 kts 62°
2026-04-24 22:54 -33.41394 20.02503 27387 ft 456 kts 62°
2026-04-24 22:54 -33.39990 20.05899 27699 ft 458 kts 62°
2026-04-24 22:54 -33.38566 20.09341 28043 ft 460 kts 61°
2026-04-24 22:55 -33.37147 20.12767 28365 ft 462 kts 61°
2026-04-24 22:55 -33.35710 20.16231 28666 ft 465 kts 62°
2026-04-24 22:55 -33.34269 20.19703 28983 ft 468 kts 62°
2026-04-24 22:55 -33.32818 20.23197 29313 ft 470 kts 62°
2026-04-24 22:56 -33.31361 20.26702 29656 ft 472 kts 62°
2026-04-24 22:56 -33.29890 20.30237 29985 ft 474 kts 62°
2026-04-24 22:56 -33.28417 20.33771 30270 ft 476 kts 61°
2026-04-24 22:56 -33.26851 20.37260 30503 ft 478 kts 56°
2026-04-24 22:57 -33.24962 20.40528 30759 ft 478 kts 49°
2026-04-24 22:57 -33.22847 20.43533 31013 ft 480 kts 47°
2026-04-24 22:57 -33.20679 20.46590 31287 ft 483 kts 47°
2026-04-24 22:57 -33.18500 20.49688 31465 ft 487 kts 47°
2026-04-24 22:58 -33.16323 20.52791 31712 ft 490 kts 47°
2026-04-24 22:58 -33.14128 20.55920 31985 ft 492 kts 47°
2026-04-24 22:58 -33.11925 20.59054 32221 ft 494 kts 47°
2026-04-24 22:58 -33.09708 20.62202 32467 ft 497 kts 47°
2026-04-24 22:59 -33.07480 20.65361 32723 ft 499 kts 47°
2026-04-24 22:59 -33.05243 20.68529 32968 ft 502 kts 47°
2026-04-24 23:00 -32.98477 20.78098 32977 ft 502 kts 47°
2026-04-24 23:00 -32.93976 20.84445 32980 ft 502 kts 47°
2026-04-24 23:01 -32.89498 20.90751 32996 ft 502 kts 47°
2026-04-24 23:01 -32.84991 20.97087 32994 ft 502 kts 47°
2026-04-24 23:02 -32.80477 21.03424 33006 ft 502 kts 47°
2026-04-24 23:02 -32.75950 21.09767 33003 ft 502 kts 47°
2026-04-24 23:03 -32.71439 21.16075 32988 ft 502 kts 47°
2026-04-24 23:03 -32.66917 21.22389 33003 ft 502 kts 47°
2026-04-24 23:04 -32.62397 21.28688 33010 ft 502 kts 47°
2026-04-24 23:04 -32.57874 21.34983 33007 ft 502 kts 47°
2026-04-24 23:05 -32.53325 21.41301 33015 ft 502 kts 47°
2026-04-24 23:05 -32.48779 21.47606 33074 ft 504 kts 47°
2026-04-24 23:05 -32.46536 21.50711 33366 ft 505 kts 47°
2026-04-24 23:06 -32.44253 21.53870 33627 ft 507 kts 47°
2026-04-24 23:06 -32.41943 21.57064 33865 ft 509 kts 47°
2026-04-24 23:06 -32.39645 21.60238 34118 ft 511 kts 47°
2026-04-24 23:06 -32.37319 21.63447 34329 ft 513 kts 47°
2026-04-24 23:07 -32.34993 21.66655 34525 ft 516 kts 47°
2026-04-24 23:07 -32.32642 21.69895 34733 ft 518 kts 46°
2026-04-24 23:07 -32.30283 21.73143 34965 ft 520 kts 46°
2026-04-24 23:08 -32.25574 21.79620 35049 ft 514 kts 46°
2026-04-24 23:08 -32.20879 21.86061 35045 ft 523 kts 46°
2026-04-24 23:09 -32.16128 21.92569 35042 ft 523 kts 46°
2026-04-24 23:09 -32.11389 21.99053 35062 ft 522 kts 46°
2026-04-24 23:10 -32.06632 22.05547 35062 ft 522 kts 46°
2026-04-24 23:10 -32.01875 22.12030 35064 ft 522 kts 46°
2026-04-24 23:11 -31.97115 22.18506 35075 ft 524 kts 46°
2026-04-24 23:11 -31.92368 22.24956 35084 ft 524 kts 46°
2026-04-24 23:12 -31.87564 22.31469 35081 ft 523 kts 46°
2026-04-24 23:12 -31.82816 22.37896 35087 ft 523 kts 46°
2026-04-24 23:13 -31.78035 22.44357 35086 ft 523 kts 46°
2026-04-24 23:13 -31.73272 22.50780 35088 ft 524 kts 46°
2026-04-24 23:14 -31.68447 22.57279 35088 ft 524 kts 46°
2026-04-24 23:14 -31.63647 22.63731 35092 ft 524 kts 46°
2026-04-24 23:15 -31.58846 22.70174 35083 ft 524 kts 46°
2026-04-24 23:15 -31.54047 22.76604 35097 ft 524 kts 46°
2026-04-24 23:16 -31.49268 22.82996 35096 ft 525 kts 46°
2026-04-24 23:16 -31.44451 22.89428 35102 ft 524 kts 46°
2026-04-24 23:17 -31.39627 22.95857 35103 ft 525 kts 46°
2026-04-24 23:17 -31.34814 23.02262 35108 ft 524 kts 46°
2026-04-24 23:18 -31.29997 23.08662 35110 ft 525 kts 46°
2026-04-24 23:18 -31.25161 23.15074 35115 ft 525 kts 46°
2026-04-24 23:19 -31.20327 23.21481 35113 ft 525 kts 46°
2026-04-24 23:19 -31.15527 23.27842 35118 ft 525 kts 46°
2026-04-24 23:20 -31.10774 23.34392 35119 ft 526 kts 47°
2026-04-24 23:20 -31.06096 23.40873 35121 ft 525 kts 47°
2026-04-24 23:21 -31.01369 23.47377 35119 ft 526 kts 47°
2026-04-24 23:21 -30.96634 23.53872 35121 ft 525 kts 47°
2026-04-24 23:22 -30.91896 23.60358 35122 ft 526 kts 47°
2026-04-24 23:22 -30.87156 23.66839 35124 ft 525 kts 46°
2026-04-24 23:23 -30.82419 23.73302 35124 ft 525 kts 46°
2026-04-24 23:23 -30.77660 23.79784 35128 ft 525 kts 47°
2026-04-24 23:24 -30.72914 23.86237 35130 ft 525 kts 47°
2026-04-24 23:24 -30.68191 23.92650 35134 ft 525 kts 46°
2026-04-24 23:25 -30.63406 23.99136 35134 ft 526 kts 46°
2026-04-24 23:25 -30.58674 24.05539 35137 ft 526 kts 46°
2026-04-24 23:26 -30.53896 24.11994 35133 ft 527 kts 46°
2026-04-24 23:26 -30.49111 24.18449 35138 ft 527 kts 46°
2026-04-24 23:27 -30.44329 24.24888 35135 ft 527 kts 46°
2026-04-24 23:27 -30.39536 24.31332 35140 ft 528 kts 46°
2026-04-24 23:28 -30.34718 24.37797 35143 ft 533 kts 46°
2026-04-24 23:28 -30.29893 24.44261 35143 ft 535 kts 46°
2026-04-24 23:29 -30.25027 24.50772 35143 ft 535 kts 46°
2026-04-24 23:29 -30.20154 24.57280 35146 ft 535 kts 46°
2026-04-24 23:30 -30.15278 24.63781 35145 ft 536 kts 46°
2026-04-24 23:30 -30.10386 24.70293 35151 ft 536 kts 46°
2026-04-24 23:31 -30.05488 24.76802 35158 ft 536 kts 46°
2026-04-24 23:31 -30.00613 24.83271 35158 ft 536 kts 46°
2026-04-24 23:32 -29.95703 24.89775 35157 ft 536 kts 46°
2026-04-24 23:32 -29.90830 24.96219 35156 ft 536 kts 46°
2026-04-24 23:33 -29.85896 25.02732 35157 ft 536 kts 46°
2026-04-24 23:33 -29.81024 25.09153 35154 ft 535 kts 46°
2026-04-24 23:34 -29.76108 25.15623 35162 ft 536 kts 46°
2026-04-24 23:34 -29.71311 25.22174 35160 ft 537 kts 53°
2026-04-24 23:35 -29.67228 25.29408 35160 ft 538 kts 56°
2026-04-24 23:35 -29.63177 25.36643 35179 ft 538 kts 56°
2026-04-24 23:36 -29.59114 25.43865 35179 ft 538 kts 56°
2026-04-24 23:36 -29.55076 25.51029 35176 ft 538 kts 56°
2026-04-24 23:37 -29.51007 25.58236 35177 ft 537 kts 56°
2026-04-24 23:37 -29.44909 25.69013 35188 ft 535 kts 55°
2026-04-24 23:38 -29.40871 25.76135 35182 ft 534 kts 55°
2026-04-24 23:38 -29.36815 25.83274 35193 ft 532 kts 55°
2026-04-24 23:39 -29.33453 25.89184 35172 ft 532 kts 55°
2026-04-24 23:39 -29.29415 25.96270 35176 ft 531 kts 55°
2026-04-24 23:40 -29.25387 26.03327 35178 ft 530 kts 54°
2026-04-24 23:40 -29.21337 26.10410 35176 ft 530 kts 54°
2026-04-24 23:41 -29.17295 26.17466 35181 ft 530 kts 54°
2026-04-24 23:41 -29.13252 26.24511 35180 ft 530 kts 54°
2026-04-24 23:42 -29.09083 26.31461 35259 ft 527 kts 49°
2026-04-24 23:42 -29.04443 26.37887 35248 ft 527 kts 48°
2026-04-24 23:43 -28.99785 26.44382 35230 ft 528 kts 48°
2026-04-24 23:43 -28.95115 26.50897 35236 ft 529 kts 48°
2026-04-24 23:44 -28.90439 26.57407 35219 ft 529 kts 48°
2026-04-24 23:44 -28.85795 26.63863 35219 ft 529 kts 47°
2026-04-24 23:45 -28.81120 26.70346 35219 ft 529 kts 47°
2026-04-24 23:45 -28.76441 26.76822 35223 ft 528 kts 47°
2026-04-24 23:46 -28.71765 26.83285 35221 ft 528 kts 47°
2026-04-24 23:46 -28.67085 26.89741 35204 ft 528 kts 47°
2026-04-24 23:47 -28.62442 26.96138 35211 ft 528 kts 47°
2026-04-24 23:47 -28.57765 27.02570 35220 ft 528 kts 47°
2026-04-24 23:48 -28.53065 27.09025 35222 ft 528 kts 47°
2026-04-24 23:48 -28.48369 27.15465 35237 ft 528 kts 47°
2026-04-24 23:49 -28.43700 27.21859 35238 ft 528 kts 47°
2026-04-24 23:49 -28.38994 27.28292 35249 ft 528 kts 47°
2026-04-24 23:50 -28.34285 27.34719 35254 ft 528 kts 47°
2026-04-24 23:50 -28.29613 27.41087 35251 ft 528 kts 47°
2026-04-24 23:51 -28.24909 27.47489 35251 ft 528 kts 47°
2026-04-24 23:51 -28.20201 27.53887 35256 ft 527 kts 47°
2026-04-24 23:52 -28.15498 27.60267 35255 ft 527 kts 47°
2026-04-24 23:52 -28.10776 27.66665 35255 ft 527 kts 47°
2026-04-24 23:53 -28.06097 27.72993 35255 ft 527 kts 47°
2026-04-24 23:53 -28.01377 27.79369 35258 ft 527 kts 47°
2026-04-24 23:54 -27.96657 27.85735 35256 ft 527 kts 47°
2026-04-24 23:54 -27.91936 27.92092 35251 ft 527 kts 47°
2026-04-24 23:55 -27.87214 27.98441 35251 ft 528 kts 47°
2026-04-24 23:55 -27.82506 28.04761 35256 ft 528 kts 46°
2026-04-24 23:56 -27.77763 28.11121 35260 ft 529 kts 46°
2026-04-24 23:56 -27.73026 28.17462 35263 ft 529 kts 46°
2026-04-24 23:57 -27.68260 28.23832 35267 ft 529 kts 46°
2026-04-24 23:57 -27.63509 28.30174 35274 ft 530 kts 46°
2026-04-24 23:58 -27.58731 28.36542 35281 ft 530 kts 46°
2026-04-24 23:58 -27.54005 28.42832 35281 ft 529 kts 46°
2026-04-24 23:59 -27.49244 28.49160 35276 ft 529 kts 46°
2026-04-24 23:59 -27.44482 28.55477 35285 ft 529 kts 46°
2026-04-25 00:00 -27.39713 28.61795 35286 ft 529 kts 46°
2026-04-25 00:00 -27.34950 28.68097 35285 ft 529 kts 45°
2026-04-25 00:01 -27.30176 28.74405 35293 ft 528 kts 45°
2026-04-25 00:01 -27.25415 28.80685 35294 ft 528 kts 45°
2026-04-25 00:02 -27.20677 28.86926 35291 ft 528 kts 45°
2026-04-25 00:02 -27.15900 28.93210 35288 ft 528 kts 45°
2026-04-25 00:03 -27.11123 28.99486 35289 ft 528 kts 44°
2026-04-25 00:03 -27.06372 29.05716 35291 ft 528 kts 44°
2026-04-25 00:04 -27.01586 29.11983 35295 ft 528 kts 44°
2026-04-25 00:04 -26.96798 29.18246 35304 ft 529 kts 44°
2026-04-25 00:05 -26.92006 29.24504 35306 ft 529 kts 44°
2026-04-25 00:05 -26.87207 29.30764 35297 ft 529 kts 44°
2026-04-25 00:06 -26.82402 29.37020 35300 ft 529 kts 44°
2026-04-25 00:06 -26.77632 29.43224 35288 ft 529 kts 44°
2026-04-25 00:07 -26.72793 29.49507 35294 ft 529 kts 44°
2026-04-25 00:07 -26.68022 29.55695 35292 ft 529 kts 43°
2026-04-25 00:08 -26.63206 29.61931 35293 ft 529 kts 43°
2026-04-25 00:08 -26.58391 29.68157 35295 ft 529 kts 43°
2026-04-25 00:09 -26.53577 29.74373 35295 ft 529 kts 43°
2026-04-25 00:09 -26.48794 29.80541 35292 ft 528 kts 43°
2026-04-25 00:10 -26.43966 29.86759 35295 ft 528 kts 43°
2026-04-25 00:10 -26.39164 29.92936 35306 ft 526 kts 43°
2026-04-25 00:11 -26.35175 29.98058 35296 ft 526 kts 43°
2026-04-25 00:11 -26.29566 30.05251 35290 ft 525 kts 43°
2026-04-25 00:12 -26.24781 30.11379 35274 ft 524 kts 43°
2026-04-25 00:12 -26.19986 30.17511 35280 ft 524 kts 42°
2026-04-25 00:13 -26.15221 30.23597 35278 ft 524 kts 42°
2026-04-25 00:13 -26.10437 30.29697 35269 ft 523 kts 42°
2026-04-25 00:14 -26.05644 30.35802 35249 ft 523 kts 42°
2026-04-25 00:14 -26.00854 30.41896 35255 ft 523 kts 42°
2026-04-25 00:15 -25.96058 30.47988 35256 ft 523 kts 41°
2026-04-25 00:15 -25.91250 30.54085 35253 ft 524 kts 42°
2026-04-25 00:16 -25.86442 30.60177 35261 ft 524 kts 41°
2026-04-25 00:16 -25.81619 30.66278 35257 ft 525 kts 41°
2026-04-25 00:17 -25.76832 30.72327 35279 ft 525 kts 41°
2026-04-25 00:17 -25.72006 30.78415 35249 ft 525 kts 41°
2026-04-25 00:18 -25.67181 30.84497 35230 ft 524 kts 41°
2026-04-25 00:18 -25.62361 30.90563 35224 ft 524 kts 41°
2026-04-25 00:19 -25.57543 30.96617 35241 ft 524 kts 41°
2026-04-25 00:19 -25.52751 31.02631 35266 ft 523 kts 41°
2026-04-25 00:20 -25.47942 31.08657 35273 ft 522 kts 41°
2026-04-25 00:20 -25.43136 31.14674 35268 ft 522 kts 41°
2026-04-25 00:21 -25.38316 31.20701 35262 ft 521 kts 41°
2026-04-25 00:21 -25.33512 31.26697 35248 ft 520 kts 41°
2026-04-25 00:22 -25.28703 31.32691 35186 ft 520 kts 42°
2026-04-25 00:22 -25.23902 31.38671 35188 ft 520 kts 42°
2026-04-25 00:23 -25.19094 31.44651 35180 ft 521 kts 42°
2026-04-25 00:23 -25.14310 31.50594 35183 ft 521 kts 42°
2026-04-25 00:24 -25.09471 31.56595 35156 ft 523 kts 43°
2026-04-25 00:24 -25.04626 31.62596 35163 ft 526 kts 43°
2026-04-25 00:25 -24.99725 31.68660 35178 ft 528 kts 42°
2026-04-25 00:25 -24.95656 31.73690 35191 ft 529 kts 43°
2026-04-25 00:26 -24.89943 31.80743 35170 ft 531 kts 43°
2026-04-25 00:26 -24.85846 31.85796 35175 ft 532 kts 43°
2026-04-25 00:27 -24.80897 31.91896 35180 ft 533 kts 43°
2026-04-25 00:27 -24.75946 31.97990 35188 ft 534 kts 43°
2026-04-25 00:28 -24.71114 32.04205 35185 ft 537 kts 47°
2026-04-25 00:28 -24.66639 32.10748 35210 ft 536 kts 48°
2026-04-25 00:29 -24.62127 32.17265 35194 ft 535 kts 47°
2026-04-25 00:29 -24.57587 32.23721 35177 ft 534 kts 47°
2026-04-25 00:30 -24.53040 32.30159 35164 ft 532 kts 46°
2026-04-25 00:30 -24.48148 32.36174 35152 ft 526 kts 42°
2026-04-25 00:31 -24.43193 32.42098 35155 ft 525 kts 42°
2026-04-25 00:31 -24.38263 32.47995 35145 ft 524 kts 42°
2026-04-25 00:32 -24.33355 32.53854 35140 ft 523 kts 42°
2026-04-25 00:32 -24.28432 32.59724 35138 ft 523 kts 42°
2026-04-25 00:33 -24.23501 32.65595 35139 ft 523 kts 42°
2026-04-25 00:33 -24.18563 32.71468 35141 ft 523 kts 42°
2026-04-25 00:34 -24.13564 32.77201 35133 ft 519 kts 36°
2026-04-25 00:34 -24.07794 32.81754 35140 ft 508 kts 23°
2026-04-25 00:35 -24.01442 32.85022 35145 ft 503 kts 18°
2026-04-25 00:35 -23.95029 32.88186 35146 ft 504 kts 18°
2026-04-25 00:36 -23.88681 32.91327 35153 ft 504 kts 18°
2026-04-25 00:36 -23.82280 32.94487 35158 ft 503 kts 18°
2026-04-25 00:37 -23.75898 32.97631 35143 ft 503 kts 18°
2026-04-25 00:37 -23.69522 33.00767 35142 ft 502 kts 18°
2026-04-25 00:38 -23.63140 33.03903 35135 ft 502 kts 18°
2026-04-25 00:38 -23.56778 33.07026 35128 ft 501 kts 18°
2026-04-25 00:39 -23.50426 33.10141 35139 ft 500 kts 18°
2026-04-25 00:39 -23.44115 33.13233 35140 ft 499 kts 18°
2026-04-25 00:40 -23.37777 33.16334 35124 ft 499 kts 18°
2026-04-25 00:40 -23.31441 33.19432 35137 ft 497 kts 18°
2026-04-25 00:41 -23.25134 33.22512 35126 ft 496 kts 18°
2026-04-25 00:41 -23.18846 33.25580 35135 ft 494 kts 18°
2026-04-25 00:42 -23.12574 33.28636 35123 ft 493 kts 18°
2026-04-25 00:42 -23.06371 33.31655 35112 ft 492 kts 18°
2026-04-25 00:43 -23.00118 33.34696 35103 ft 491 kts 18°
2026-04-25 00:43 -22.93897 33.37718 35098 ft 491 kts 18°
2026-04-25 00:44 -22.87631 33.40758 35104 ft 490 kts 18°
2026-04-25 00:44 -22.81402 33.43779 35108 ft 491 kts 18°
2026-04-25 00:45 -22.75193 33.46786 35111 ft 491 kts 18°
2026-04-25 00:45 -22.68932 33.49815 35109 ft 492 kts 18°
2026-04-25 00:46 -22.62713 33.52821 35114 ft 492 kts 18°
2026-04-25 00:47 -22.53333 33.57349 35110 ft 492 kts 18°
2026-04-25 00:47 -22.47056 33.60376 35112 ft 493 kts 18°
2026-04-25 00:48 -22.40786 33.63397 35119 ft 493 kts 18°
2026-04-25 00:48 -22.34523 33.66411 35122 ft 493 kts 18°
2026-04-25 00:49 -22.28256 33.69424 35088 ft 493 kts 18°
2026-04-25 00:49 -22.22000 33.72428 35092 ft 494 kts 18°
2026-04-25 00:50 -22.15697 33.75452 35095 ft 495 kts 18°
2026-04-25 00:50 -22.09389 33.78476 35103 ft 496 kts 18°
2026-04-25 00:51 -22.03068 33.81502 35121 ft 497 kts 18°
2026-04-25 00:51 -21.96794 33.84504 35107 ft 497 kts 18°
2026-04-25 00:52 -21.90448 33.87537 35105 ft 498 kts 18°
2026-04-25 00:52 -21.84098 33.90569 35108 ft 498 kts 18°
2026-04-25 00:53 -21.77769 33.93588 35110 ft 498 kts 18°
2026-04-25 00:53 -21.71468 33.96591 35100 ft 498 kts 18°
2026-04-25 00:54 -21.65141 33.99603 35097 ft 498 kts 18°
2026-04-25 00:54 -21.58787 34.02625 35095 ft 498 kts 18°
2026-04-25 00:55 -21.52430 34.05646 35098 ft 498 kts 18°
2026-04-25 00:55 -21.46092 34.08654 35100 ft 499 kts 18°
2026-04-25 00:56 -21.39783 34.11646 35101 ft 499 kts 18°
2026-04-25 00:56 -21.33414 34.14664 35104 ft 499 kts 18°
2026-04-25 00:57 -21.27047 34.17678 35103 ft 499 kts 18°
2026-04-25 00:57 -21.20694 34.20682 35100 ft 499 kts 18°
2026-04-25 00:58 -21.14343 34.23682 35088 ft 498 kts 18°
2026-04-25 00:58 -21.08034 34.26660 35082 ft 498 kts 18°
2026-04-25 00:59 -21.01687 34.29653 35097 ft 498 kts 18°
2026-04-25 00:59 -20.95343 34.32642 35088 ft 497 kts 18°
2026-04-25 01:00 -20.89001 34.35628 35090 ft 497 kts 18°
2026-04-25 01:00 -20.82669 34.38605 35093 ft 497 kts 18°
2026-04-25 01:01 -20.76375 34.41562 35085 ft 497 kts 18°
2026-04-25 01:01 -20.70048 34.44531 35083 ft 497 kts 18°
2026-04-25 01:02 -20.63721 34.47499 35083 ft 497 kts 18°
2026-04-25 01:02 -20.57384 34.50468 35085 ft 497 kts 18°
2026-04-25 01:03 -20.51045 34.53435 35076 ft 497 kts 18°
2026-04-25 01:03 -20.44743 34.56382 35071 ft 497 kts 18°
2026-04-25 01:04 -20.38391 34.59350 35076 ft 498 kts 18°
2026-04-25 01:04 -20.32054 34.62309 35080 ft 498 kts 18°
2026-04-25 01:05 -20.25690 34.65277 35072 ft 499 kts 18°
2026-04-25 01:05 -20.19347 34.68234 35073 ft 499 kts 18°
2026-04-25 01:06 -20.12995 34.71190 35067 ft 499 kts 18°
2026-04-25 01:06 -20.06630 34.74151 35044 ft 499 kts 18°
2026-04-25 01:07 -20.00263 34.77110 35038 ft 499 kts 18°
2026-04-25 01:07 -19.93887 34.80072 35032 ft 499 kts 18°
2026-04-25 01:08 -19.87543 34.83016 35026 ft 500 kts 18°
2026-04-25 01:08 -19.81169 34.85972 35016 ft 500 kts 19°
2026-04-25 01:09 -19.74693 34.88547 35016 ft 496 kts 13°
2026-04-25 01:09 -19.68135 34.90878 35051 ft 497 kts 14°
2026-04-25 01:10 -19.61576 34.93223 35057 ft 497 kts 13°
2026-04-25 01:10 -19.55011 34.95566 35053 ft 497 kts 13°
2026-04-25 01:11 -19.48457 34.97900 35060 ft 497 kts 14°
2026-04-25 01:11 -19.41930 35.00222 35057 ft 497 kts 14°
2026-04-25 01:12 -19.35368 35.02555 35062 ft 497 kts 14°
2026-04-25 01:12 -19.28795 35.04891 35056 ft 498 kts 14°
2026-04-25 01:13 -19.23335 35.06828 35055 ft 498 kts 14°
2026-04-25 01:13 -19.15700 35.09536 35057 ft 498 kts 14°
2026-04-25 01:14 -19.09124 35.11867 35065 ft 498 kts 14°
2026-04-25 01:14 -19.03621 35.13815 35067 ft 498 kts 14°
2026-04-25 01:15 -18.97055 35.16138 35062 ft 498 kts 14°
2026-04-25 01:15 -18.90513 35.18450 35056 ft 498 kts 14°
2026-04-25 01:16 -18.83932 35.20775 35055 ft 499 kts 14°
2026-04-25 01:16 -18.77332 35.23104 35058 ft 499 kts 14°
2026-04-25 01:17 -18.70759 35.25422 35049 ft 499 kts 14°
2026-04-25 01:17 -18.64195 35.27734 35040 ft 499 kts 14°
2026-04-25 01:18 -18.57602 35.30056 35045 ft 499 kts 14°
2026-04-25 01:18 -18.51004 35.32382 35050 ft 500 kts 14°
2026-04-25 01:19 -18.44483 35.34680 35047 ft 500 kts 14°
2026-04-25 01:19 -18.37796 35.37033 35043 ft 500 kts 14°
2026-04-25 01:20 -18.31236 35.39340 35048 ft 500 kts 14°
2026-04-25 01:20 -18.24632 35.41661 35045 ft 500 kts 14°
2026-04-25 01:21 -18.18015 35.43984 35041 ft 501 kts 14°
2026-04-25 01:21 -18.11395 35.46306 35042 ft 500 kts 14°
2026-04-25 01:22 -18.04785 35.48623 35036 ft 500 kts 14°
2026-04-25 01:22 -17.98169 35.50940 35019 ft 500 kts 15°
2026-04-25 01:23 -17.91608 35.53237 35014 ft 501 kts 15°
2026-04-25 01:23 -17.84979 35.55555 35014 ft 501 kts 15°
2026-04-25 01:24 -17.78358 35.57869 35026 ft 502 kts 15°
2026-04-25 01:24 -17.71728 35.60184 35022 ft 502 kts 15°
2026-04-25 01:25 -17.65135 35.62483 35027 ft 502 kts 15°
2026-04-25 01:25 -17.58488 35.64801 35029 ft 503 kts 15°
2026-04-25 01:26 -17.51849 35.67114 35026 ft 503 kts 15°
2026-04-25 01:26 -17.45200 35.69426 35035 ft 503 kts 15°
2026-04-25 01:27 -17.38553 35.71734 35019 ft 503 kts 15°
2026-04-25 01:27 -17.31915 35.74039 35020 ft 504 kts 15°
2026-04-25 01:28 -17.21942 35.77498 35026 ft 504 kts 15°
2026-04-25 01:28 -17.15276 35.79808 35030 ft 505 kts 15°
2026-04-25 01:29 -17.08600 35.82119 35019 ft 505 kts 15°
2026-04-25 01:29 -17.01918 35.84431 35028 ft 506 kts 15°
2026-04-25 01:30 -16.95224 35.86746 35038 ft 506 kts 15°
2026-04-25 01:30 -16.88525 35.89060 35037 ft 506 kts 15°
2026-04-25 01:31 -16.81875 35.91356 35035 ft 507 kts 15°
2026-04-25 01:31 -16.75169 35.93669 35036 ft 507 kts 15°
2026-04-25 01:32 -16.68462 35.95981 35035 ft 507 kts 15°
2026-04-25 01:32 -16.61766 35.98287 35037 ft 507 kts 15°
2026-04-25 01:33 -16.55097 36.00583 35038 ft 507 kts 15°
2026-04-25 01:33 -16.48347 36.02904 35028 ft 507 kts 16°
2026-04-25 01:34 -16.41685 36.05193 35032 ft 507 kts 16°
2026-04-25 01:34 -16.34971 36.07500 35035 ft 508 kts 16°
2026-04-25 01:35 -16.28251 36.09806 35038 ft 508 kts 16°
2026-04-25 01:35 -16.21564 36.12099 35041 ft 508 kts 16°
2026-04-25 01:36 -16.14802 36.14416 35040 ft 509 kts 16°
2026-04-25 01:36 -16.08111 36.16707 35044 ft 509 kts 16°
2026-04-25 01:37 -16.01376 36.19012 35046 ft 509 kts 16°
2026-04-25 01:37 -15.94632 36.21306 35048 ft 509 kts 15°
2026-04-25 01:38 -15.87886 36.23557 35040 ft 509 kts 16°
2026-04-25 01:38 -15.81134 36.25812 35040 ft 509 kts 16°
2026-04-25 01:39 -15.74371 36.28074 35045 ft 509 kts 16°
2026-04-25 01:39 -15.67620 36.30330 35044 ft 509 kts 16°
2026-04-25 01:40 -15.60908 36.32572 35041 ft 509 kts 16°
2026-04-25 01:40 -15.54148 36.34828 35035 ft 509 kts 16°
2026-04-25 01:41 -15.47400 36.37080 35036 ft 509 kts 16°
2026-04-25 01:41 -15.40647 36.39331 35035 ft 510 kts 16°
2026-04-25 01:42 -15.33887 36.41582 35034 ft 510 kts 16°
2026-04-25 01:42 -15.27174 36.43817 35035 ft 510 kts 16°
2026-04-25 01:43 -15.20402 36.46070 35033 ft 510 kts 16°
2026-04-25 01:43 -15.13634 36.48320 35032 ft 510 kts 16°
2026-04-25 01:44 -15.06875 36.50565 35031 ft 510 kts 16°
2026-04-25 01:44 -15.00154 36.52796 35035 ft 510 kts 16°
2026-04-25 01:45 -14.93389 36.55040 35026 ft 510 kts 16°
2026-04-25 01:45 -14.86635 36.57279 35024 ft 509 kts 16°
2026-04-25 01:46 -14.79870 36.59521 35022 ft 510 kts 16°
2026-04-25 01:46 -14.73099 36.61763 35020 ft 510 kts 16°
2026-04-25 01:47 -14.66383 36.63985 35024 ft 510 kts 17°
2026-04-25 01:47 -14.59633 36.66217 35018 ft 509 kts 17°
2026-04-25 01:48 -14.52874 36.68451 35018 ft 509 kts 17°
2026-04-25 01:48 -14.46127 36.70679 35019 ft 510 kts 17°
2026-04-25 01:49 -14.39361 36.72912 35020 ft 510 kts 17°
2026-04-25 01:49 -14.32640 36.75128 35012 ft 510 kts 17°
2026-04-25 01:50 -14.25838 36.77371 35013 ft 510 kts 17°
2026-04-25 01:50 -14.19110 36.79587 35016 ft 511 kts 17°
2026-04-25 01:51 -14.12327 36.81820 35028 ft 511 kts 17°
2026-04-25 01:51 -14.05549 36.84050 35026 ft 511 kts 17°
2026-04-25 01:52 -13.98806 36.86276 35025 ft 511 kts 18°
2026-04-25 01:52 -13.92031 36.88551 35010 ft 512 kts 18°
2026-04-25 01:53 -13.85258 36.90824 35009 ft 512 kts 18°
2026-04-25 01:53 -13.78472 36.93095 35008 ft 512 kts 18°
2026-04-25 01:54 -13.71692 36.95361 35022 ft 512 kts 18°
2026-04-25 01:54 -13.64956 36.97611 35001 ft 513 kts 18°
2026-04-25 01:55 -13.58167 36.99878 35000 ft 513 kts 18°
2026-04-25 01:55 -13.51360 37.02149 35014 ft 513 kts 18°
2026-04-25 01:56 -13.44559 37.04417 35024 ft 513 kts 18°
2026-04-25 01:56 -13.37808 37.06667 35019 ft 513 kts 18°
2026-04-25 01:57 -13.27620 37.10061 35002 ft 513 kts 18°
2026-04-25 01:58 -13.20838 37.12318 35002 ft 512 kts 18°
2026-04-25 01:58 -13.14035 37.14580 35007 ft 511 kts 18°
2026-04-25 01:59 -13.07320 37.16813 35006 ft 509 kts 18°
2026-04-25 01:59 -13.00587 37.19050 34994 ft 508 kts 18°
2026-04-25 02:00 -12.93857 37.21284 34987 ft 507 kts 18°
2026-04-25 02:00 -12.87138 37.23514 34977 ft 506 kts 18°
2026-04-25 02:01 -12.80491 37.25721 34978 ft 505 kts 19°
2026-04-25 02:01 -12.73833 37.28010 34959 ft 504 kts 19°
2026-04-25 02:02 -12.67199 37.30302 34956 ft 503 kts 19°
2026-04-25 02:02 -12.61682 37.32199 34961 ft 503 kts 19°
2026-04-25 02:03 -12.55038 37.34478 34959 ft 503 kts 19°
2026-04-25 02:03 -12.48377 37.36761 34972 ft 504 kts 19°
2026-04-25 02:04 -12.41717 37.39044 34980 ft 505 kts 19°
2026-04-25 02:04 -12.35091 37.41314 34976 ft 505 kts 19°
2026-04-25 02:05 -12.28437 37.43591 34973 ft 506 kts 19°
2026-04-25 02:05 -12.21733 37.45885 34982 ft 506 kts 19°
2026-04-25 02:06 -12.15040 37.48174 34982 ft 506 kts 19°
2026-04-25 02:06 -12.08352 37.50460 34977 ft 506 kts 19°
2026-04-25 02:07 -12.01701 37.52731 34973 ft 506 kts 19°
2026-04-25 02:07 -11.95015 37.55014 34974 ft 506 kts 19°
2026-04-25 02:08 -11.88330 37.57295 34970 ft 506 kts 19°
2026-04-25 02:08 -11.81663 37.59569 34966 ft 506 kts 19°
2026-04-25 02:09 -11.75013 37.61836 34964 ft 505 kts 19°
2026-04-25 02:09 -11.68342 37.64109 34968 ft 505 kts 19°
2026-04-25 02:10 -11.61669 37.66377 34969 ft 505 kts 19°
2026-04-25 02:10 -11.54965 37.68573 34965 ft 506 kts 19°
2026-04-25 02:11 -11.48254 37.70760 34960 ft 506 kts 19°
2026-04-25 02:11 -11.41603 37.72937 34964 ft 506 kts 19°
2026-04-25 02:12 -11.34890 37.75136 34969 ft 506 kts 19°
2026-04-25 02:12 -11.28179 37.77333 34966 ft 506 kts 19°
2026-04-25 02:13 -11.21483 37.79524 34963 ft 506 kts 19°
2026-04-25 02:13 -11.14814 37.81706 34964 ft 506 kts 19°
2026-04-25 02:14 -11.08110 37.83897 34966 ft 506 kts 19°
2026-04-25 02:14 -11.01407 37.86088 34965 ft 506 kts 19°
2026-04-25 02:15 -10.94697 37.88279 34969 ft 506 kts 19°
2026-04-25 02:15 -10.87989 37.90469 34970 ft 505 kts 19°
2026-04-25 02:16 -10.81296 37.92652 34962 ft 505 kts 19°
2026-04-25 02:16 -10.74595 37.94838 34961 ft 505 kts 19°
2026-04-25 02:17 -10.67941 37.97007 34980 ft 504 kts 19°
2026-04-25 02:17 -10.61253 37.99186 34974 ft 504 kts 19°
2026-04-25 02:18 -10.54613 38.01349 34966 ft 503 kts 19°
2026-04-25 02:18 -10.47946 38.03519 34961 ft 502 kts 19°
2026-04-25 02:19 -10.41283 38.05687 34946 ft 502 kts 19°
2026-04-25 02:19 -10.34673 38.07837 34952 ft 501 kts 19°
2026-04-25 02:20 -10.28033 38.09996 34944 ft 501 kts 19°
2026-04-25 02:20 -10.21394 38.12153 34946 ft 500 kts 19°
2026-04-25 02:21 -10.14763 38.14307 34960 ft 500 kts 19°
2026-04-25 02:21 -10.08126 38.16462 34968 ft 500 kts 19°
2026-04-25 02:22 -10.01485 38.18617 34958 ft 500 kts 19°
2026-04-25 02:22 -9.94896 38.20754 34960 ft 500 kts 19°
2026-04-25 02:23 -9.88266 38.22904 34958 ft 500 kts 19°
2026-04-25 02:23 -9.81633 38.25054 34954 ft 499 kts 19°
2026-04-25 02:24 -9.75014 38.27198 34938 ft 499 kts 19°
2026-04-25 02:24 -9.68391 38.29343 34934 ft 499 kts 19°
2026-04-25 02:25 -9.61819 38.31471 34942 ft 499 kts 19°
2026-04-25 02:25 -9.55188 38.33616 34955 ft 499 kts 19°
2026-04-25 02:26 -9.48574 38.35755 34955 ft 499 kts 19°
2026-04-25 02:26 -9.41951 38.37897 34956 ft 499 kts 19°
2026-04-25 02:27 -9.35366 38.40025 34958 ft 499 kts 19°
2026-04-25 02:27 -9.28736 38.42167 34957 ft 499 kts 19°
2026-04-25 02:28 -9.22108 38.44307 34949 ft 500 kts 19°
2026-04-25 02:28 -9.15471 38.46449 34950 ft 500 kts 19°
2026-04-25 02:29 -9.08889 38.48573 34943 ft 499 kts 19°
2026-04-25 02:29 -9.02247 38.50716 34948 ft 499 kts 19°
2026-04-25 02:30 -8.95621 38.52852 34948 ft 499 kts 19°
2026-04-25 02:30 -8.88997 38.54987 34949 ft 499 kts 18°
2026-04-25 02:31 -8.82371 38.57122 34944 ft 499 kts 18°
2026-04-25 02:31 -8.75794 38.59240 34940 ft 499 kts 18°
2026-04-25 02:32 -8.69179 38.61369 34931 ft 499 kts 18°
2026-04-25 02:32 -8.62564 38.63498 34928 ft 499 kts 18°
2026-04-25 02:33 -8.55958 38.65624 34929 ft 499 kts 18°
2026-04-25 02:33 -8.49407 38.67731 34945 ft 498 kts 18°
2026-04-25 02:34 -8.42730 38.69879 34941 ft 498 kts 18°
2026-04-25 02:34 -8.36119 38.72009 34936 ft 498 kts 18°
2026-04-25 02:35 -8.29578 38.74115 34927 ft 497 kts 18°
2026-04-25 02:35 -8.22964 38.76244 34919 ft 497 kts 18°
2026-04-25 02:36 -8.16362 38.78368 34936 ft 498 kts 18°
2026-04-25 02:36 -8.09756 38.80492 34935 ft 498 kts 18°
2026-04-25 02:37 -8.03187 38.82604 34933 ft 498 kts 18°
2026-04-25 02:37 -7.96574 38.84729 34929 ft 498 kts 18°
2026-04-25 02:38 -7.89956 38.86856 34922 ft 498 kts 17°
2026-04-25 02:38 -7.83369 38.88971 34928 ft 499 kts 17°
2026-04-25 02:39 -7.76755 38.91095 34925 ft 499 kts 17°
2026-04-25 02:39 -7.70130 38.93221 34927 ft 499 kts 17°
2026-04-25 02:40 -7.63513 38.95344 34923 ft 499 kts 17°
2026-04-25 02:40 -7.56902 38.97465 34925 ft 499 kts 17°
2026-04-25 02:41 -7.50284 38.99586 34926 ft 499 kts 17°
2026-04-25 02:41 -7.43672 39.01706 34926 ft 499 kts 17°
2026-04-25 02:42 -7.37092 39.03814 34923 ft 499 kts 17°
2026-04-25 02:42 -7.30461 39.05939 34927 ft 498 kts 17°
2026-04-25 02:43 -7.23899 39.08040 34923 ft 498 kts 17°
2026-04-25 02:43 -7.17274 39.10161 34924 ft 498 kts 17°
2026-04-25 02:44 -7.10668 39.12275 34919 ft 498 kts 17°
2026-04-25 02:44 -7.04058 39.14390 34919 ft 498 kts 17°
2026-04-25 02:45 -6.97457 39.16501 34920 ft 498 kts 17°
2026-04-25 02:45 -6.90900 39.18740 34912 ft 498 kts 22°
2026-04-25 02:46 -6.84807 39.21979 34914 ft 499 kts 33°
2026-04-25 02:46 -6.79062 39.25923 34914 ft 499 kts 33°
2026-04-25 02:47 -6.73308 39.29844 34914 ft 500 kts 33°
2026-04-25 02:47 -6.67531 39.33779 34909 ft 500 kts 33°
2026-04-25 02:48 -6.61812 39.37678 34911 ft 500 kts 33°
2026-04-25 02:48 -6.56048 39.41607 34910 ft 500 kts 33°
2026-04-25 02:49 -6.50291 39.45529 34912 ft 500 kts 33°
2026-04-25 02:49 -6.44509 39.49467 34902 ft 500 kts 33°
2026-04-25 02:50 -6.38779 39.53370 34898 ft 501 kts 33°
2026-04-25 02:50 -6.33008 39.57300 34902 ft 501 kts 33°
2026-04-25 02:51 -6.27240 39.61226 34908 ft 501 kts 32°
2026-04-25 02:51 -6.21464 39.65131 34910 ft 501 kts 32°
2026-04-25 02:52 -6.15661 39.69011 34904 ft 501 kts 32°
2026-04-25 02:52 -6.10841 39.72238 34905 ft 501 kts 32°
2026-04-25 02:53 -6.05041 39.76124 34902 ft 501 kts 32°
2026-04-25 02:53 -5.99238 39.80012 34900 ft 501 kts 32°
2026-04-25 02:54 -5.93445 39.83894 34905 ft 500 kts 32°
2026-04-25 02:54 -5.87654 39.87771 34903 ft 500 kts 32°
2026-04-25 02:55 -5.81897 39.91626 34894 ft 500 kts 32°
2026-04-25 02:55 -5.76105 39.95503 34894 ft 500 kts 32°
2026-04-25 02:56 -5.70321 39.99374 34894 ft 500 kts 32°
2026-04-25 02:56 -5.64514 40.03259 34897 ft 500 kts 32°
2026-04-25 02:57 -5.58758 40.07109 34901 ft 500 kts 32°
2026-04-25 02:57 -5.52966 40.10982 34897 ft 500 kts 32°
2026-04-25 02:58 -5.47169 40.14859 34906 ft 500 kts 32°
2026-04-25 02:58 -5.41373 40.18732 34906 ft 500 kts 32°
2026-04-25 02:59 -5.35574 40.22608 34904 ft 500 kts 32°
2026-04-25 02:59 -5.29791 40.26471 34904 ft 500 kts 31°
2026-04-25 03:00 -5.24027 40.30321 34903 ft 499 kts 31°
2026-04-25 03:00 -5.18246 40.34182 34896 ft 499 kts 32°
2026-04-25 03:01 -5.12448 40.38057 34895 ft 500 kts 33°
2026-04-25 03:01 -5.06965 40.42301 34892 ft 501 kts 36°
2026-04-25 03:02 -5.01444 40.46649 34894 ft 501 kts 36°
2026-04-25 03:02 -4.95951 40.50967 34895 ft 501 kts 36°
2026-04-25 03:03 -4.90497 40.55255 34904 ft 501 kts 36°
2026-04-25 03:03 -4.85003 40.59575 34907 ft 501 kts 36°
2026-04-25 03:04 -4.79319 40.63582 34898 ft 498 kts 29°
2026-04-25 03:04 -4.73389 40.67178 34897 ft 498 kts 30°
2026-04-25 03:05 -4.64545 40.72584 34899 ft 498 kts 30°
2026-04-25 03:05 -4.58628 40.76197 34902 ft 498 kts 30°
2026-04-25 03:06 -4.52699 40.79816 34901 ft 497 kts 30°
2026-04-25 03:06 -4.46829 40.83398 34897 ft 497 kts 30°
2026-04-25 03:07 -4.40909 40.87010 34897 ft 497 kts 30°
2026-04-25 03:07 -4.34988 40.90622 34898 ft 497 kts 30°
2026-04-25 03:08 -4.29083 40.94222 34911 ft 496 kts 30°
2026-04-25 03:08 -4.23189 40.97817 34906 ft 496 kts 30°
2026-04-25 03:09 -4.17322 41.01394 34899 ft 495 kts 30°
2026-04-25 03:09 -4.11435 41.04983 34894 ft 495 kts 30°
2026-04-25 03:10 -4.05549 41.08569 34890 ft 494 kts 30°
2026-04-25 03:10 -3.99671 41.12167 34894 ft 494 kts 32°
2026-04-25 03:11 -3.94134 41.16204 34880 ft 495 kts 35°
2026-04-25 03:11 -3.88591 41.20310 34881 ft 496 kts 35°
2026-04-25 03:12 -3.83037 41.24418 34890 ft 497 kts 35°
2026-04-25 03:12 -3.77476 41.28532 34898 ft 497 kts 35°
2026-04-25 03:13 -3.71892 41.32663 34897 ft 498 kts 35°
2026-04-25 03:13 -3.66318 41.36786 34893 ft 498 kts 35°
2026-04-25 03:14 -3.60733 41.40917 34896 ft 499 kts 35°
2026-04-25 03:14 -3.55138 41.45054 34899 ft 499 kts 35°
2026-04-25 03:15 -3.49585 41.49161 34906 ft 499 kts 35°
2026-04-25 03:15 -3.43996 41.53292 34904 ft 499 kts 35°
2026-04-25 03:16 -3.38402 41.57427 34897 ft 499 kts 35°
2026-04-25 03:16 -3.32818 41.61554 34896 ft 499 kts 35°
2026-04-25 03:17 -3.27221 41.65689 34896 ft 499 kts 35°
2026-04-25 03:17 -3.21665 41.69794 34898 ft 499 kts 35°
2026-04-25 03:18 -3.16086 41.73916 34899 ft 499 kts 35°
2026-04-25 03:18 -3.10468 41.78065 34898 ft 499 kts 35°
2026-04-25 03:19 -3.04909 41.82170 34899 ft 499 kts 35°
2026-04-25 03:19 -2.99319 41.86298 34898 ft 499 kts 35°
2026-04-25 03:20 -2.93729 41.90426 34901 ft 499 kts 35°
2026-04-25 03:20 -2.88125 41.94563 34900 ft 499 kts 35°
2026-04-25 03:21 -2.82543 41.98683 34896 ft 499 kts 35°
2026-04-25 03:21 -2.76953 42.02809 34899 ft 499 kts 35°
2026-04-25 03:22 -2.71387 42.06916 34895 ft 499 kts 35°
2026-04-25 03:22 -2.65791 42.11045 34896 ft 499 kts 35°
2026-04-25 03:23 -2.60198 42.15172 34899 ft 500 kts 35°
2026-04-25 03:23 -2.54588 42.19311 34900 ft 500 kts 35°
2026-04-25 03:24 -2.49016 42.23420 34897 ft 500 kts 35°
2026-04-25 03:24 -2.43420 42.27548 34898 ft 500 kts 35°
2026-04-25 03:25 -2.37806 42.31688 34901 ft 501 kts 35°
2026-04-25 03:25 -2.32184 42.35834 34903 ft 501 kts 35°
2026-04-25 03:26 -2.26577 42.39968 34903 ft 501 kts 35°
2026-04-25 03:26 -2.20996 42.44081 34905 ft 501 kts 35°
2026-04-25 03:27 -2.15277 42.48068 34904 ft 500 kts 33°
2026-04-25 03:27 -2.09543 42.52000 34902 ft 500 kts 33°
2026-04-25 03:28 -2.03806 42.55965 34900 ft 500 kts 34°
2026-04-25 03:28 -1.98092 42.59917 34900 ft 500 kts 33°
2026-04-25 03:29 -1.92342 42.63804 34896 ft 500 kts 33°
2026-04-25 03:29 -1.86563 42.67708 34899 ft 500 kts 33°
2026-04-25 03:30 -1.80783 42.71621 34899 ft 500 kts 33°
2026-04-25 03:30 -1.75050 42.75505 34900 ft 501 kts 33°
2026-04-25 03:31 -1.69280 42.79414 34901 ft 501 kts 33°
2026-04-25 03:31 -1.63506 42.83325 34906 ft 501 kts 33°
2026-04-25 03:32 -1.57739 42.87232 34905 ft 500 kts 33°
2026-04-25 03:32 -1.52001 42.91118 34903 ft 500 kts 33°
2026-04-25 03:33 -1.46236 42.95022 34903 ft 500 kts 33°
2026-04-25 03:33 -1.40478 42.98921 34896 ft 500 kts 33°
2026-04-25 03:34 -1.34720 43.02820 34894 ft 499 kts 33°
2026-04-25 03:34 -1.28974 43.06710 34906 ft 498 kts 33°
2026-04-25 03:35 -1.23272 43.10571 34901 ft 498 kts 33°
2026-04-25 03:35 -1.17531 43.14458 34899 ft 497 kts 33°
2026-04-25 03:36 -1.11805 43.18335 34898 ft 497 kts 33°
2026-04-25 03:36 -1.06077 43.22213 34889 ft 497 kts 33°
2026-04-25 03:37 -1.00379 43.26070 34888 ft 497 kts 33°
2026-04-25 03:37 -0.94607 43.29976 34895 ft 498 kts 33°
2026-04-25 03:38 -0.88897 43.33842 34900 ft 498 kts 33°
2026-04-25 03:38 -0.83159 43.37726 34905 ft 499 kts 33°
2026-04-25 03:39 -0.77409 43.41617 34901 ft 499 kts 33°
2026-04-25 03:39 -0.72613 43.44863 34896 ft 500 kts 33°
2026-04-25 03:40 -0.65914 43.49397 34900 ft 500 kts 33°
2026-04-25 03:40 -0.61125 43.52638 34904 ft 501 kts 33°
2026-04-25 03:41 -0.55342 43.56552 34906 ft 501 kts 33°
2026-04-25 03:41 -0.49568 43.60459 34909 ft 501 kts 33°
2026-04-25 03:42 -0.43795 43.64366 34904 ft 501 kts 33°
2026-04-25 03:42 -0.38060 43.68247 34902 ft 500 kts 33°
2026-04-25 03:43 -0.32300 43.72145 34901 ft 500 kts 33°
2026-04-25 03:43 -0.26536 43.76045 34900 ft 500 kts 33°
2026-04-25 03:44 -0.20771 43.79946 34897 ft 500 kts 33°
2026-04-25 03:44 -0.15001 43.83851 34896 ft 500 kts 33°
2026-04-25 03:45 -0.09260 43.87735 34897 ft 500 kts 33°
2026-04-25 03:45 -0.03517 43.91621 34898 ft 500 kts 33°
2026-04-25 03:46 0.02242 43.95518 34906 ft 500 kts 33°
2026-04-25 03:46 0.08005 43.99418 34905 ft 499 kts 33°
2026-04-25 03:47 0.13756 44.03310 34904 ft 499 kts 33°
2026-04-25 03:47 0.19493 44.07191 34905 ft 498 kts 33°
2026-04-25 03:48 0.25219 44.11066 34901 ft 498 kts 33°
2026-04-25 03:48 0.30956 44.14948 34908 ft 497 kts 33°
2026-04-25 03:49 0.36683 44.18816 34902 ft 496 kts 33°
2026-04-25 03:49 0.42409 44.22670 34898 ft 496 kts 33°
2026-04-25 03:50 0.48119 44.26514 34901 ft 495 kts 33°
2026-04-25 03:50 0.53820 44.30354 34897 ft 494 kts 33°
2026-04-25 03:51 0.59476 44.34164 34907 ft 494 kts 34°
2026-04-25 03:51 0.65205 44.38023 34902 ft 493 kts 34°
2026-04-25 03:52 0.70864 44.41835 34902 ft 493 kts 34°
2026-04-25 03:52 0.76548 44.45664 34890 ft 493 kts 33°
2026-04-25 03:53 0.82263 44.49515 34896 ft 494 kts 33°
2026-04-25 03:53 0.87932 44.53334 34902 ft 494 kts 33°
2026-04-25 03:54 0.93634 44.57176 34910 ft 494 kts 33°
2026-04-25 03:54 0.99350 44.61027 34913 ft 494 kts 33°
2026-04-25 03:55 1.05050 44.64868 34907 ft 494 kts 33°
2026-04-25 03:55 1.10767 44.68720 34903 ft 494 kts 33°
2026-04-25 03:56 1.16438 44.72542 34906 ft 495 kts 33°
2026-04-25 03:56 1.22152 44.76392 34906 ft 495 kts 33°
2026-04-25 03:57 1.27864 44.80241 34909 ft 495 kts 33°
2026-04-25 03:57 1.33574 44.84090 34913 ft 495 kts 33°
2026-04-25 03:58 1.39259 44.87922 34919 ft 495 kts 33°
2026-04-25 03:58 1.44961 44.91766 34921 ft 495 kts 33°
2026-04-25 03:59 1.50678 44.95619 34919 ft 495 kts 33°
2026-04-25 03:59 1.56395 44.99473 34921 ft 494 kts 33°
2026-04-25 04:00 1.62088 45.03312 34922 ft 494 kts 33°
2026-04-25 04:00 1.67792 45.07158 34940 ft 493 kts 33°
2026-04-25 04:01 1.73441 45.10966 34930 ft 492 kts 33°
2026-04-25 04:01 1.79124 45.14798 34925 ft 492 kts 33°
2026-04-25 04:02 1.84802 45.18627 34926 ft 491 kts 33°
2026-04-25 04:02 1.90439 45.22428 34918 ft 491 kts 33°
2026-04-25 04:03 1.96098 45.26245 34907 ft 491 kts 33°
2026-04-25 04:03 2.01808 45.30027 34910 ft 491 kts 30°
2026-04-25 04:04 2.07692 45.33526 34923 ft 492 kts 30°
2026-04-25 04:04 2.13578 45.37050 34929 ft 493 kts 30°
2026-04-25 04:05 2.19439 45.40557 34924 ft 494 kts 30°
2026-04-25 04:05 2.25322 45.44077 34931 ft 495 kts 30°
2026-04-25 04:06 2.31264 45.47633 34942 ft 496 kts 30°
2026-04-25 04:06 2.37196 45.51183 34948 ft 497 kts 30°
2026-04-25 04:07 2.43133 45.54737 34951 ft 497 kts 30°
2026-04-25 04:07 2.49045 45.58275 34946 ft 497 kts 30°
2026-04-25 04:08 2.54988 45.61833 34943 ft 498 kts 30°
2026-04-25 04:08 2.60927 45.65389 34945 ft 498 kts 30°
2026-04-25 04:09 2.66853 45.68938 34948 ft 498 kts 30°
2026-04-25 04:09 2.72784 45.72489 34945 ft 498 kts 30°
2026-04-25 04:10 2.78732 45.76051 34946 ft 497 kts 30°
2026-04-25 04:10 2.84662 45.79603 34942 ft 497 kts 30°
2026-04-25 04:11 2.93569 45.84939 34946 ft 498 kts 30°
2026-04-25 04:12 2.99495 45.88490 34946 ft 498 kts 30°
2026-04-25 04:12 3.05477 45.92075 34945 ft 497 kts 30°
2026-04-25 04:13 3.11387 45.95616 34945 ft 497 kts 30°
2026-04-25 04:13 3.17335 45.99182 34951 ft 497 kts 30°
2026-04-25 04:14 3.23276 46.02743 34952 ft 497 kts 30°
2026-04-25 04:14 3.29171 46.06278 34950 ft 497 kts 30°
2026-04-25 04:15 3.35118 46.09844 34956 ft 496 kts 30°
2026-04-25 04:15 3.41004 46.13374 34952 ft 496 kts 30°
2026-04-25 04:16 3.46912 46.16918 34947 ft 495 kts 30°
2026-04-25 04:16 3.52831 46.20469 34941 ft 496 kts 30°
2026-04-25 04:17 3.58759 46.24026 34945 ft 496 kts 30°
2026-04-25 04:17 3.64665 46.27571 34960 ft 495 kts 30°
2026-04-25 04:18 3.70580 46.31120 34957 ft 494 kts 30°
2026-04-25 04:18 3.76476 46.34659 34947 ft 494 kts 30°
2026-04-25 04:19 3.82333 46.38176 34948 ft 493 kts 29°
2026-04-25 04:19 3.88224 46.41713 34949 ft 493 kts 30°
2026-04-25 04:20 3.94107 46.45246 34947 ft 492 kts 30°
2026-04-25 04:20 3.99989 46.48779 34944 ft 492 kts 30°
2026-04-25 04:21 4.05815 46.52279 34941 ft 491 kts 30°
2026-04-25 04:21 4.11682 46.55805 34939 ft 491 kts 30°
2026-04-25 04:22 4.17541 46.59326 34957 ft 490 kts 30°
2026-04-25 04:22 4.23390 46.62842 34954 ft 490 kts 30°
2026-04-25 04:23 4.29229 46.66352 34950 ft 489 kts 30°
2026-04-25 04:23 4.35026 46.69838 34946 ft 489 kts 30°
2026-04-25 04:24 4.40863 46.73348 34942 ft 488 kts 30°
2026-04-25 04:24 4.46693 46.76855 34946 ft 488 kts 30°
2026-04-25 04:25 4.52515 46.80358 34945 ft 487 kts 30°
2026-04-25 04:25 4.58330 46.83857 34945 ft 487 kts 30°
2026-04-25 04:26 4.64134 46.87350 34942 ft 487 kts 30°
2026-04-25 04:26 4.69908 46.90826 34942 ft 487 kts 30°
2026-04-25 04:27 4.75716 46.94323 34955 ft 486 kts 29°
2026-04-25 04:27 4.81518 46.97818 34967 ft 486 kts 29°
2026-04-25 04:28 4.87290 47.01295 34952 ft 486 kts 29°
2026-04-25 04:28 4.92143 47.04218 34949 ft 486 kts 29°
2026-04-25 04:29 4.98888 47.08282 34947 ft 485 kts 29°
2026-04-25 04:29 5.03704 47.11185 34946 ft 485 kts 29°
2026-04-25 04:30 5.09488 47.14672 34944 ft 485 kts 29°
2026-04-25 04:30 5.15272 47.18159 34948 ft 485 kts 29°
2026-04-25 04:31 5.21074 47.21658 34952 ft 485 kts 29°
2026-04-25 04:31 5.26846 47.25140 34950 ft 485 kts 29°
2026-04-25 04:32 5.32616 47.28621 34946 ft 485 kts 29°
2026-04-25 04:32 5.38395 47.32109 34950 ft 485 kts 29°
2026-04-25 04:33 5.44176 47.35598 34952 ft 485 kts 29°
2026-04-25 04:33 5.49970 47.39096 34952 ft 485 kts 29°
2026-04-25 04:34 5.55755 47.42589 34949 ft 485 kts 29°
2026-04-25 04:34 5.61542 47.46084 34939 ft 485 kts 29°
2026-04-25 04:35 5.67274 47.49550 34954 ft 484 kts 29°
2026-04-25 04:35 5.73032 47.53079 34955 ft 484 kts 30°
2026-04-25 04:36 5.78795 47.56617 34951 ft 484 kts 30°
2026-04-25 04:36 5.84535 47.60136 34951 ft 484 kts 30°
2026-04-25 04:37 5.90270 47.63651 34953 ft 484 kts 30°
2026-04-25 04:37 5.96019 47.67175 34952 ft 484 kts 30°
2026-04-25 04:38 6.01767 47.70700 34954 ft 484 kts 30°
2026-04-25 04:38 6.07522 47.74230 34950 ft 484 kts 30°
2026-04-25 04:39 6.13247 47.77742 34954 ft 484 kts 30°
2026-04-25 04:39 6.18992 47.81268 34946 ft 484 kts 30°
2026-04-25 04:40 6.24717 47.84782 34954 ft 484 kts 29°
2026-04-25 04:40 6.30486 47.88325 34955 ft 484 kts 29°
2026-04-25 04:41 6.36198 47.91832 34955 ft 484 kts 29°
2026-04-25 04:41 6.41954 47.95368 34955 ft 484 kts 29°
2026-04-25 04:42 6.47699 47.98898 34953 ft 484 kts 29°
2026-04-25 04:42 6.53447 48.02432 34949 ft 484 kts 29°
2026-04-25 04:43 6.59202 48.05970 34953 ft 484 kts 29°
2026-04-25 04:43 6.64968 48.09516 34955 ft 485 kts 29°
2026-04-25 04:44 6.70684 48.13032 34959 ft 485 kts 29°
2026-04-25 04:44 6.76458 48.16585 34956 ft 485 kts 29°
2026-04-25 04:45 6.82225 48.20134 34959 ft 485 kts 29°
2026-04-25 04:45 6.87955 48.23662 34957 ft 485 kts 29°
2026-04-25 04:46 6.93716 48.27211 34955 ft 485 kts 29°
2026-04-25 04:46 6.99479 48.30760 34955 ft 485 kts 29°
2026-04-25 04:47 7.05250 48.34317 34957 ft 485 kts 29°
2026-04-25 04:47 7.11001 48.37862 34965 ft 485 kts 29°
2026-04-25 04:48 7.16764 48.41415 34962 ft 485 kts 29°
2026-04-25 04:48 7.22502 48.44954 34961 ft 485 kts 29°
2026-04-25 04:49 7.28255 48.48503 34959 ft 485 kts 29°
2026-04-25 04:49 7.34029 48.52067 34962 ft 485 kts 29°
2026-04-25 04:50 7.39801 48.55584 34960 ft 485 kts 28°
2026-04-25 04:50 7.45594 48.59079 34964 ft 485 kts 28°
2026-04-25 04:51 7.51349 48.62562 34966 ft 485 kts 28°
2026-04-25 04:51 7.57134 48.66067 34966 ft 485 kts 28°
2026-04-25 04:52 7.62925 48.69579 34968 ft 485 kts 28°
2026-04-25 04:52 7.68687 48.73073 34975 ft 485 kts 28°
2026-04-25 04:53 7.74514 48.76608 34973 ft 486 kts 28°
2026-04-25 04:53 7.80282 48.80108 34977 ft 486 kts 28°
2026-04-25 04:54 7.86079 48.83628 34974 ft 486 kts 28°
2026-04-25 04:54 7.91877 48.87148 34988 ft 486 kts 28°
2026-04-25 04:55 7.97671 48.90668 34988 ft 486 kts 28°
2026-04-25 04:55 8.03443 48.94176 34977 ft 486 kts 28°
2026-04-25 04:56 8.09241 48.97700 34976 ft 486 kts 28°
2026-04-25 04:56 8.15056 49.01235 34980 ft 486 kts 28°
2026-04-25 04:57 8.20821 49.04742 34983 ft 486 kts 28°
2026-04-25 04:57 8.26628 49.08276 34983 ft 487 kts 28°
2026-04-25 04:58 8.32433 49.11809 34982 ft 487 kts 28°
2026-04-25 04:58 8.38251 49.15352 34980 ft 487 kts 28°
2026-04-25 04:59 8.44015 49.18863 34979 ft 487 kts 28°
2026-04-25 04:59 8.49832 49.22408 34979 ft 487 kts 28°
2026-04-25 05:00 8.55640 49.25948 34985 ft 487 kts 28°
2026-04-25 05:00 8.61442 49.29486 34987 ft 487 kts 28°
2026-04-25 05:01 8.67250 49.33030 34990 ft 487 kts 28°
2026-04-25 05:01 8.73016 49.36552 34988 ft 487 kts 28°
2026-04-25 05:02 8.78817 49.40097 34988 ft 487 kts 28°
2026-04-25 05:02 8.84629 49.43649 34986 ft 487 kts 28°
2026-04-25 05:03 8.90428 49.47194 34993 ft 487 kts 28°
2026-04-25 05:03 8.96246 49.50752 34993 ft 488 kts 28°
2026-04-25 05:04 9.02026 49.54289 34989 ft 488 kts 28°
2026-04-25 05:04 9.07842 49.57849 34991 ft 488 kts 28°
2026-04-25 05:05 9.13648 49.61404 34995 ft 488 kts 28°
2026-04-25 05:05 9.19462 49.64966 34995 ft 488 kts 28°
2026-04-25 05:06 9.25271 49.68526 34998 ft 488 kts 28°
2026-04-25 05:06 9.31083 49.72091 34994 ft 488 kts 28°
2026-04-25 05:07 9.36855 49.75632 34996 ft 488 kts 28°
2026-04-25 05:07 9.42664 49.79198 34993 ft 488 kts 28°
2026-04-25 05:08 9.48480 49.82769 34998 ft 488 kts 28°
2026-04-25 05:08 9.54287 49.86336 34999 ft 488 kts 28°
2026-04-25 05:09 9.60072 49.89891 34999 ft 489 kts 28°
2026-04-25 05:09 9.65888 49.93467 35003 ft 489 kts 28°
2026-04-25 05:10 9.71711 49.97048 35002 ft 489 kts 28°
2026-04-25 05:10 9.77544 50.00637 35003 ft 489 kts 28°
2026-04-25 05:11 9.83335 50.04202 35004 ft 489 kts 28°
2026-04-25 05:11 9.89158 50.07788 35001 ft 489 kts 28°
2026-04-25 05:12 9.97891 50.13168 35004 ft 489 kts 28°
2026-04-25 05:12 10.03722 50.16763 34998 ft 490 kts 28°
2026-04-25 05:13 10.09550 50.20357 34996 ft 490 kts 28°
2026-04-25 05:13 10.15345 50.23932 34994 ft 490 kts 28°
2026-04-25 05:14 10.21174 50.27530 34997 ft 490 kts 28°
2026-04-25 05:15 10.29892 50.32914 34990 ft 489 kts 28°
2026-04-25 05:15 10.35706 50.36507 34987 ft 489 kts 28°
2026-04-25 05:16 10.41505 50.40091 34987 ft 489 kts 28°
2026-04-25 05:16 10.47327 50.43692 34985 ft 489 kts 28°
2026-04-25 05:17 10.52160 50.46683 34993 ft 489 kts 28°
2026-04-25 05:17 10.57970 50.50278 34992 ft 488 kts 28°
2026-04-25 05:18 10.63778 50.53875 34987 ft 488 kts 28°
2026-04-25 05:18 10.69586 50.57473 34988 ft 488 kts 28°
2026-04-25 05:19 10.75383 50.61066 34989 ft 488 kts 28°
2026-04-25 05:19 10.81144 50.64638 34992 ft 488 kts 28°
2026-04-25 05:20 10.86924 50.68225 34994 ft 488 kts 28°
2026-04-25 05:20 10.92758 50.71845 34985 ft 488 kts 28°
2026-04-25 05:21 10.98563 50.75450 34989 ft 488 kts 28°
2026-04-25 05:21 11.04334 50.79035 34990 ft 488 kts 28°
2026-04-25 05:22 11.10131 50.82638 34984 ft 488 kts 28°
2026-04-25 05:22 11.15932 50.86245 34995 ft 488 kts 28°
2026-04-25 05:23 11.21723 50.89848 34988 ft 487 kts 28°
2026-04-25 05:23 11.27492 50.93438 34988 ft 487 kts 28°
2026-04-25 05:24 11.33283 50.97044 34982 ft 488 kts 28°
2026-04-25 05:24 11.39075 51.00652 34981 ft 487 kts 28°
2026-04-25 05:25 11.44872 51.04261 34987 ft 487 kts 28°
2026-04-25 05:25 11.50663 51.07864 34977 ft 487 kts 28°
2026-04-25 05:26 11.56418 51.11446 34973 ft 487 kts 28°
2026-04-25 05:26 11.62210 51.15054 34970 ft 487 kts 28°
2026-04-25 05:27 11.67989 51.18656 34961 ft 487 kts 28°
2026-04-25 05:27 11.73739 51.22241 34965 ft 487 kts 28°
2026-04-25 05:28 11.79530 51.25855 34962 ft 487 kts 28°
2026-04-25 05:28 11.85324 51.29470 34961 ft 487 kts 28°
2026-04-25 05:29 11.91105 51.33080 34960 ft 487 kts 28°
2026-04-25 05:29 11.96892 51.36696 34959 ft 487 kts 28°
2026-04-25 05:30 12.02639 51.40289 34959 ft 487 kts 28°
2026-04-25 05:30 12.08428 51.43907 34959 ft 487 kts 28°
2026-04-25 05:31 12.14214 51.47523 34957 ft 487 kts 28°
2026-04-25 05:31 12.20003 51.51143 34957 ft 487 kts 28°
2026-04-25 05:32 12.25793 51.54767 34958 ft 487 kts 28°
2026-04-25 05:32 12.31550 51.58372 34959 ft 487 kts 28°
2026-04-25 05:33 12.37339 51.61998 34963 ft 488 kts 28°
2026-04-25 05:33 12.43126 51.65626 34957 ft 488 kts 28°
2026-04-25 05:34 12.48935 51.69268 34958 ft 488 kts 28°
2026-04-25 05:34 12.54686 51.72877 34958 ft 488 kts 28°
2026-04-25 05:35 12.60481 51.76515 34958 ft 488 kts 28°
2026-04-25 05:35 12.66285 51.80160 34963 ft 488 kts 28°
2026-04-25 05:36 12.72041 51.83778 34966 ft 488 kts 28°
2026-04-25 05:36 12.77830 51.87418 34962 ft 488 kts 28°
2026-04-25 05:37 12.83630 51.91067 34960 ft 488 kts 28°
2026-04-25 05:37 12.89431 51.94719 34961 ft 488 kts 28°
2026-04-25 05:38 12.95220 51.98365 34961 ft 488 kts 28°
2026-04-25 05:38 13.00979 52.01994 34958 ft 488 kts 28°
2026-04-25 05:39 13.06775 52.05649 34964 ft 489 kts 28°
2026-04-25 05:39 13.12577 52.09308 34965 ft 489 kts 28°
2026-04-25 05:40 13.18368 52.12964 34963 ft 489 kts 28°
2026-04-25 05:40 13.24121 52.16598 34966 ft 488 kts 28°
2026-04-25 05:41 13.29917 52.20260 34969 ft 488 kts 28°
2026-04-25 05:41 13.35701 52.23918 34967 ft 488 kts 28°
2026-04-25 05:42 13.41498 52.27587 34961 ft 489 kts 28°
2026-04-25 05:42 13.47229 52.31227 34968 ft 488 kts 28°
2026-04-25 05:43 13.53037 52.34918 34965 ft 488 kts 28°
2026-04-25 05:43 13.58822 52.38596 34972 ft 488 kts 28°
2026-04-25 05:44 13.64602 52.42272 34966 ft 488 kts 28°
2026-04-25 05:44 13.70374 52.45945 34968 ft 488 kts 28°
2026-04-25 05:45 13.76116 52.49601 34969 ft 488 kts 28°
2026-04-25 05:45 13.81890 52.53280 34972 ft 487 kts 28°
2026-04-25 05:46 13.87660 52.56958 34970 ft 487 kts 28°
2026-04-25 05:46 13.93393 52.60615 34974 ft 487 kts 28°
2026-04-25 05:47 13.99162 52.64297 34972 ft 487 kts 28°
2026-04-25 05:47 14.04915 52.67971 34973 ft 487 kts 28°
2026-04-25 05:48 14.10684 52.71657 34975 ft 487 kts 28°
2026-04-25 05:48 14.16443 52.75340 34973 ft 487 kts 28°
2026-04-25 05:49 14.22164 52.79000 34975 ft 487 kts 28°
2026-04-25 05:49 14.27925 52.82688 34973 ft 487 kts 28°
2026-04-25 05:50 14.33682 52.86376 34973 ft 487 kts 28°
2026-04-25 05:50 14.39441 52.90067 34975 ft 487 kts 28°
2026-04-25 05:51 14.45192 52.93755 34979 ft 487 kts 28°
2026-04-25 05:51 14.50941 52.97444 34977 ft 487 kts 28°
2026-04-25 05:52 14.56633 53.01099 34979 ft 487 kts 28°
2026-04-25 05:52 14.62414 53.04814 34980 ft 486 kts 28°
2026-04-25 05:53 14.68169 53.08509 34983 ft 486 kts 27°
2026-04-25 05:53 14.73926 53.12172 34981 ft 486 kts 27°
2026-04-25 05:54 14.79657 53.15819 34978 ft 486 kts 27°
2026-04-25 05:54 14.88301 53.21330 34979 ft 486 kts 27°
2026-04-25 05:55 14.94056 53.25003 34980 ft 486 kts 27°
2026-04-25 05:55 14.99811 53.28679 34984 ft 486 kts 27°
2026-04-25 05:56 15.05563 53.32355 34982 ft 485 kts 27°
2026-04-25 05:56 15.11276 53.36008 34982 ft 485 kts 27°
2026-04-25 05:57 15.17028 53.39689 34980 ft 485 kts 27°
2026-04-25 05:57 15.22766 53.43362 34979 ft 485 kts 27°
2026-04-25 05:58 15.28477 53.47022 34979 ft 485 kts 27°
2026-04-25 05:58 15.34212 53.50699 34979 ft 485 kts 27°
2026-04-25 05:59 15.39955 53.54383 34978 ft 485 kts 27°
2026-04-25 05:59 15.45693 53.58082 34976 ft 485 kts 28°
2026-04-25 06:00 15.51365 53.61872 34978 ft 485 kts 28°
2026-04-25 06:00 15.57042 53.65675 34981 ft 485 kts 28°
2026-04-25 06:01 15.62716 53.69463 34985 ft 486 kts 28°
2026-04-25 06:01 15.68379 53.73241 34984 ft 486 kts 28°
2026-04-25 06:02 15.74065 53.77037 34991 ft 486 kts 28°
2026-04-25 06:02 15.79755 53.80839 34987 ft 486 kts 28°
2026-04-25 06:03 15.85453 53.84649 34989 ft 485 kts 28°
2026-04-25 06:03 15.91133 53.88434 35397 ft 487 kts 28°
2026-04-25 06:04 15.93995 53.90319 35900 ft 485 kts 27°
2026-04-25 06:04 15.96833 53.92187 36323 ft 484 kts 27°
2026-04-25 06:04 15.99676 53.94059 36756 ft 483 kts 27°
2026-04-25 06:04 16.02536 53.95944 36951 ft 486 kts 27°
2026-04-25 06:05 16.08149 53.99652 36984 ft 478 kts 27°
2026-04-25 06:05 16.12852 54.02758 36981 ft 479 kts 27°
2026-04-25 06:06 16.18481 54.06480 36980 ft 479 kts 27°
2026-04-25 06:06 16.24076 54.10182 36980 ft 479 kts 27°
2026-04-25 06:07 16.29710 54.13913 36978 ft 479 kts 27°
2026-04-25 06:07 16.35323 54.17633 36976 ft 479 kts 27°
2026-04-25 06:08 16.40961 54.21371 36978 ft 479 kts 27°
2026-04-25 06:08 16.46543 54.25076 36983 ft 478 kts 27°
2026-04-25 06:09 16.52158 54.28804 36983 ft 478 kts 27°
2026-04-25 06:09 16.57781 54.32541 36978 ft 478 kts 27°
2026-04-25 06:10 16.63373 54.36260 36964 ft 477 kts 27°
2026-04-25 06:10 16.68947 54.39969 36963 ft 477 kts 27°
2026-04-25 06:11 16.74547 54.43698 36979 ft 477 kts 27°
2026-04-25 06:11 16.80145 54.47428 36987 ft 477 kts 27°
2026-04-25 06:12 16.85748 54.51164 36995 ft 477 kts 27°
2026-04-25 06:12 16.91306 54.54873 36992 ft 477 kts 27°
2026-04-25 06:13 16.96914 54.58616 36988 ft 477 kts 27°
2026-04-25 06:14 17.05299 54.64216 36980 ft 477 kts 27°
2026-04-25 06:14 17.10859 54.67934 37011 ft 476 kts 27°
2026-04-25 06:15 17.16448 54.71673 37013 ft 477 kts 27°
2026-04-25 06:15 17.22054 54.75427 37002 ft 478 kts 27°
2026-04-25 06:16 17.27647 54.79214 37008 ft 480 kts 30°
2026-04-25 06:16 17.33030 54.83278 37014 ft 480 kts 30°
2026-04-25 06:17 17.38462 54.87357 37014 ft 480 kts 30°
2026-04-25 06:17 17.43894 54.91440 37016 ft 479 kts 30°
2026-04-25 06:18 17.49281 54.95496 36999 ft 479 kts 30°
2026-04-25 06:18 17.54721 54.99595 36992 ft 479 kts 30°
2026-04-25 06:19 17.60087 55.03641 36984 ft 479 kts 30°
2026-04-25 06:19 17.65504 55.07727 36983 ft 478 kts 30°
2026-04-25 06:20 17.70914 55.11812 36984 ft 479 kts 30°
2026-04-25 06:20 17.76301 55.15883 36981 ft 479 kts 30°
2026-04-25 06:21 17.81714 55.19977 36982 ft 479 kts 30°
2026-04-25 06:21 17.87129 55.24077 36981 ft 479 kts 30°
2026-04-25 06:22 17.92544 55.28181 36987 ft 479 kts 30°
2026-04-25 06:22 17.97951 55.32281 36980 ft 480 kts 30°
2026-04-25 06:23 18.03324 55.36358 36979 ft 480 kts 30°
2026-04-25 06:23 18.08743 55.40474 36978 ft 480 kts 30°
2026-04-25 06:24 18.14283 55.44348 36973 ft 477 kts 26°
2026-04-25 06:24 18.19876 55.48093 36974 ft 477 kts 27°
2026-04-25 06:25 18.25448 55.51885 36982 ft 477 kts 27°
2026-04-25 06:25 18.31028 55.55707 36970 ft 478 kts 27°
2026-04-25 06:26 18.36595 55.59527 36971 ft 478 kts 27°
2026-04-25 06:26 18.42174 55.63356 36972 ft 478 kts 27°
2026-04-25 06:27 18.47754 55.67189 36970 ft 478 kts 27°
2026-04-25 06:27 18.53301 55.71003 36974 ft 478 kts 27°
2026-04-25 06:28 18.58878 55.74839 36973 ft 478 kts 27°
2026-04-25 06:28 18.64442 55.78670 36975 ft 478 kts 27°
2026-04-25 06:29 18.70024 55.82516 36964 ft 479 kts 27°
2026-04-25 06:29 18.75608 55.86367 36964 ft 479 kts 27°
2026-04-25 06:30 18.81185 55.90217 36965 ft 479 kts 27°
2026-04-25 06:30 18.86743 55.94056 36967 ft 479 kts 27°
2026-04-25 06:31 18.92281 55.97871 36966 ft 477 kts 26°
2026-04-25 06:31 18.98177 56.01028 36955 ft 470 kts 17°
2026-04-25 06:32 19.04374 56.03108 36957 ft 465 kts
2026-04-25 06:32 19.10653 56.04781 36960 ft 466 kts
2026-04-25 06:33 19.16945 56.06481 36964 ft 466 kts
2026-04-25 06:33 19.23200 56.08162 36968 ft 466 kts
2026-04-25 06:34 19.29496 56.09853 36964 ft 467 kts
2026-04-25 06:34 19.35791 56.11545 36969 ft 467 kts
2026-04-25 06:35 19.42094 56.13240 36968 ft 467 kts
2026-04-25 06:35 19.48396 56.14936 36969 ft 466 kts
2026-04-25 06:36 19.54648 56.16620 36968 ft 467 kts
2026-04-25 06:36 19.60955 56.18320 36958 ft 467 kts
2026-04-25 06:37 19.67248 56.20018 36965 ft 467 kts
2026-04-25 06:37 19.73539 56.21716 36963 ft 467 kts
2026-04-25 06:38 19.79867 56.23426 36965 ft 467 kts
2026-04-25 06:38 19.86096 56.25111 36958 ft 468 kts
2026-04-25 06:39 19.92444 56.26829 36956 ft 468 kts
2026-04-25 06:39 19.98815 56.27947 36969 ft 462 kts 360°
2026-04-25 06:40 20.05224 56.28076 36954 ft 459 kts 356°
2026-04-25 06:40 20.11623 56.28101 36973 ft 460 kts 356°
2026-04-25 06:41 20.17993 56.28126 36966 ft 461 kts 356°
2026-04-25 06:41 20.24465 56.28144 36972 ft 461 kts 356°
2026-04-25 06:42 20.30846 56.28160 36972 ft 462 kts 356°
2026-04-25 06:42 20.37287 56.28176 36969 ft 462 kts 356°
2026-04-25 06:43 20.43720 56.28191 36955 ft 462 kts 356°
2026-04-25 06:43 20.50123 56.28207 36957 ft 462 kts 356°
2026-04-25 06:44 20.56544 56.28055 36966 ft 459 kts 351°
2026-04-25 06:44 20.62863 56.27157 36961 ft 458 kts 348°
2026-04-25 06:45 20.69183 56.26252 36943 ft 459 kts 348°
2026-04-25 06:45 20.75518 56.25341 36946 ft 459 kts 348°
2026-04-25 06:46 20.81854 56.24424 36951 ft 460 kts 348°
2026-04-25 06:46 20.88199 56.23503 36951 ft 460 kts 348°
2026-04-25 06:47 20.94554 56.22581 36949 ft 461 kts 348°
2026-04-25 06:47 21.00910 56.21658 36955 ft 461 kts 348°
2026-04-25 06:48 21.07277 56.20732 36955 ft 461 kts 348°
2026-04-25 06:48 21.13600 56.19811 36959 ft 461 kts 348°
2026-04-25 06:49 21.19956 56.18885 36970 ft 462 kts 348°
2026-04-25 06:49 21.26358 56.17952 36950 ft 463 kts 348°
2026-04-25 06:50 21.32760 56.17015 36955 ft 463 kts 348°
2026-04-25 06:50 21.39151 56.16078 36960 ft 464 kts 348°
2026-04-25 06:51 21.45524 56.15142 36965 ft 464 kts 348°
2026-04-25 06:51 21.51926 56.14201 36967 ft 464 kts 348°
2026-04-25 06:52 21.58305 56.13263 36966 ft 464 kts 348°
2026-04-25 06:52 21.64730 56.12318 36969 ft 464 kts 348°
2026-04-25 06:53 21.70047 56.11534 36967 ft 464 kts 348°
2026-04-25 06:53 21.76450 56.10590 36948 ft 465 kts 348°
2026-04-25 06:54 21.82861 56.09645 36952 ft 465 kts 348°
2026-04-25 06:54 21.89281 56.08697 36956 ft 466 kts 348°
2026-04-25 06:55 21.95720 56.07745 36958 ft 467 kts 348°
2026-04-25 06:55 22.02157 56.06792 36946 ft 468 kts 348°
2026-04-25 06:56 22.08616 56.05836 36951 ft 469 kts 348°
2026-04-25 06:56 22.15087 56.04879 36958 ft 469 kts 348°
2026-04-25 06:57 22.21551 56.03921 36962 ft 470 kts 348°
2026-04-25 06:57 22.28005 56.02964 36949 ft 470 kts 348°
2026-04-25 06:58 22.34493 56.02001 36952 ft 471 kts 348°
2026-04-25 06:58 22.41000 56.01036 36958 ft 472 kts 348°
2026-04-25 06:59 22.47529 56.00073 36961 ft 472 kts 348°
2026-04-25 06:59 22.53989 55.99120 36952 ft 472 kts 348°
2026-04-25 07:00 22.60513 55.98156 36953 ft 472 kts 348°
2026-04-25 07:00 22.67065 55.97186 36961 ft 472 kts 348°
2026-04-25 07:01 22.73536 55.96227 36959 ft 472 kts 348°
2026-04-25 07:01 22.80050 55.95261 36946 ft 473 kts 348°
2026-04-25 07:02 22.86581 55.94287 36951 ft 474 kts 348°
2026-04-25 07:02 22.93110 55.93309 36960 ft 474 kts 348°
2026-04-25 07:03 22.99648 55.92330 36967 ft 474 kts 348°
2026-04-25 07:03 23.06154 55.91355 36526 ft 471 kts 348°
2026-04-25 07:03 23.09408 55.90864 35727 ft 474 kts 348°
2026-04-25 07:04 23.12710 55.90363 34755 ft 481 kts 348°
2026-04-25 07:04 23.16048 55.89856 33701 ft 489 kts 349°
2026-04-25 07:04 23.19436 55.89345 32662 ft 494 kts 349°
2026-04-25 07:04 23.22832 55.88834 31723 ft 497 kts 349°
2026-04-25 07:05 23.26273 55.88317 30984 ft 495 kts 349°
2026-04-25 07:05 23.29669 55.87807 30382 ft 490 kts 349°
2026-04-25 07:05 23.33037 55.87300 29778 ft 485 kts 349°
2026-04-25 07:05 23.36372 55.86797 29110 ft 480 kts 349°
2026-04-25 07:06 23.39669 55.86298 28522 ft 475 kts 349°
2026-04-25 07:06 23.42919 55.85806 28124 ft 469 kts 349°
2026-04-25 07:06 23.46149 55.85316 27748 ft 469 kts 349°
2026-04-25 07:06 23.49391 55.84824 27377 ft 469 kts 349°
2026-04-25 07:07 23.52608 55.84335 27010 ft 467 kts 349°
2026-04-25 07:07 23.55775 55.83855 26649 ft 464 kts 349°
2026-04-25 07:07 23.58972 55.83370 26290 ft 462 kts 349°
2026-04-25 07:07 23.62143 55.82888 25942 ft 459 kts 349°
2026-04-25 07:08 23.65311 55.82405 25588 ft 457 kts 349°
2026-04-25 07:08 23.68463 55.81965 25231 ft 456 kts 352°
2026-04-25 07:08 23.71637 55.81871 24895 ft 457 kts 359°
2026-04-25 07:08 23.74814 55.82152 24566 ft 457 kts
2026-04-25 07:09 23.77975 55.82499 24233 ft 455 kts
2026-04-25 07:09 23.81104 55.82824 23901 ft 452 kts
2026-04-25 07:09 23.84226 55.83144 23586 ft 451 kts
2026-04-25 07:09 23.87348 55.83465 23201 ft 449 kts
2026-04-25 07:10 23.90419 55.83783 22810 ft 447 kts
2026-04-25 07:10 23.93554 55.84109 22429 ft 444 kts
2026-04-25 07:10 23.96620 55.84429 22080 ft 442 kts
2026-04-25 07:10 23.99629 55.84743 21972 ft 441 kts
2026-04-25 07:11 24.02698 55.85065 21975 ft 442 kts
2026-04-25 07:11 24.05754 55.85385 21976 ft 442 kts
2026-04-25 07:11 24.08821 55.85707 21977 ft 442 kts
2026-04-25 07:11 24.11882 55.86029 21978 ft 441 kts
2026-04-25 07:12 24.14934 55.86349 21979 ft 441 kts
2026-04-25 07:12 24.20926 55.86980 21631 ft 420 kts
2026-04-25 07:12 24.23794 55.87282 21393 ft 411 kts
2026-04-25 07:13 24.26620 55.87579 21140 ft 407 kts
2026-04-25 07:13 24.29458 55.87876 20891 ft 407 kts
2026-04-25 07:13 24.32240 55.88339 20677 ft 407 kts
2026-04-25 07:13 24.35033 55.88925 20422 ft 406 kts 15°
2026-04-25 07:14 24.37652 55.90060 20019 ft 408 kts 28°
2026-04-25 07:14 24.39986 55.91827 19602 ft 405 kts 41°
2026-04-25 07:14 24.42049 55.93915 19124 ft 402 kts 43°
2026-04-25 07:14 24.44104 55.95978 18685 ft 398 kts 43°
2026-04-25 07:15 24.46144 55.98013 18231 ft 395 kts 43°
2026-04-25 07:15 24.48176 56.00038 17746 ft 391 kts 43°
2026-04-25 07:15 24.50183 56.02040 17230 ft 388 kts 43°
2026-04-25 07:15 24.52171 56.04026 16687 ft 387 kts 43°
2026-04-25 07:16 24.54161 56.06016 16077 ft 387 kts 43°
2026-04-25 07:16 24.56126 56.07986 15483 ft 387 kts 43°
2026-04-25 07:16 24.58094 56.09954 14895 ft 385 kts 41°
2026-04-25 07:16 24.60321 56.11615 14314 ft 384 kts 27°
2026-04-25 07:17 24.62817 56.12645 13735 ft 382 kts 13°
2026-04-25 07:17 24.65377 56.13131 13118 ft 379 kts
2026-04-25 07:17 24.68008 56.13593 12496 ft 377 kts
2026-04-25 07:17 24.70612 56.13634 11879 ft 373 kts 350°
2026-04-25 07:18 24.73064 56.12769 11279 ft 368 kts 330°
2026-04-25 07:18 24.75093 56.11092 10676 ft 364 kts 312°
2026-04-25 07:18 24.76704 56.09000 10133 ft 360 kts 307°
2026-04-25 07:18 24.78294 56.06850 9511 ft 358 kts 308°
2026-04-25 07:19 24.79888 56.04762 8898 ft 356 kts 309°
2026-04-25 07:19 24.81505 56.02715 8290 ft 353 kts 310°
2026-04-25 07:19 24.83132 56.00700 7683 ft 351 kts 310°
2026-04-25 07:19 24.84764 55.98698 7098 ft 349 kts 310°
2026-04-25 07:20 24.86384 55.96716 6529 ft 346 kts 311°
2026-04-25 07:20 24.87972 55.94775 6041 ft 336 kts 311°
2026-04-25 07:20 24.89484 55.92924 5707 ft 319 kts 311°
2026-04-25 07:20 24.90925 55.91162 5462 ft 301 kts 311°
2026-04-25 07:21 24.92290 55.89492 5228 ft 285 kts 311°
2026-04-25 07:21 24.93575 55.87916 5044 ft 268 kts 311°
2026-04-25 07:21 24.94775 55.86445 5027 ft 249 kts 311°
2026-04-25 07:21 24.95906 55.85059 5010 ft 237 kts 311°
2026-04-25 07:22 24.96979 55.83743 5002 ft 226 kts 311°
2026-04-25 07:22 24.98024 55.82458 4904 ft 221 kts 311°
2026-04-25 07:22 24.99048 55.81200 4787 ft 221 kts 312°
2026-04-25 07:22 25.00072 55.79944 4720 ft 215 kts 311°
2026-04-25 07:23 25.01047 55.78744 4626 ft 204 kts 311°
2026-04-25 07:23 25.01958 55.77621 4499 ft 195 kts 312°
2026-04-25 07:23 25.02869 55.76503 4386 ft 197 kts 312°
2026-04-25 07:23 25.03705 55.75323 4272 ft 199 kts 304°
2026-04-25 07:24 25.04458 55.74022 4133 ft 199 kts 302°
2026-04-25 07:24 25.05183 55.72721 4021 ft 199 kts 302°
2026-04-25 07:24 25.05903 55.71427 3929 ft 196 kts 302°
2026-04-25 07:24 25.06607 55.70157 3796 ft 195 kts 302°
2026-04-25 07:25 25.07319 55.68874 3687 ft 198 kts 302°
2026-04-25 07:25 25.08028 55.67598 3591 ft 195 kts 302°
2026-04-25 07:25 25.08736 55.66316 3449 ft 195 kts 302°
2026-04-25 07:25 25.09446 55.65038 3341 ft 194 kts 302°
2026-04-25 07:26 25.10160 55.63753 3220 ft 195 kts 302°
2026-04-25 07:26 25.10857 55.62496 3099 ft 194 kts 302°
2026-04-25 07:26 25.11554 55.61237 2976 ft 193 kts 302°
2026-04-25 07:26 25.12251 55.59981 2856 ft 192 kts 302°
2026-04-25 07:27 25.12955 55.58708 2727 ft 191 kts 301°
2026-04-25 07:27 25.13647 55.57458 2618 ft 190 kts 302°
2026-04-25 07:27 25.14305 55.56273 2530 ft 172 kts 302°
2026-04-25 07:27 25.14897 55.55207 2389 ft 153 kts 302°
2026-04-25 07:28 25.15437 55.54232 2119 ft 146 kts 302°
2026-04-25 07:28 25.15956 55.53297 1982 ft 143 kts 302°
2026-04-25 07:28 25.16484 55.52344 1997 ft 147 kts 302°
2026-04-25 07:28 25.17016 55.51383 1996 ft 145 kts 303°
2026-04-25 07:29 25.17541 55.50428 1993 ft 147 kts 303°
2026-04-25 07:29 25.18075 55.49466 1998 ft 148 kts 303°
2026-04-25 07:29 25.18619 55.48494 1816 ft 148 kts 302°
2026-04-25 07:29 25.19141 55.47534 1639 ft 144 kts 302°
2026-04-25 07:30 25.19662 55.46597 1450 ft 142 kts 303°
2026-04-25 07:30 25.20193 55.45649 1281 ft 146 kts 302°
2026-04-25 07:30 25.20720 55.44689 1094 ft 145 kts 303°
2026-04-25 07:30 25.21237 55.43754 913 ft 142 kts 303°
2026-04-25 07:31 25.21748 55.42827 745 ft 142 kts 302°
2026-04-25 07:31 25.22260 55.41902 578 ft 142 kts 302°
2026-04-25 07:31 25.22776 55.40980 387 ft 142 kts 301°
2026-04-25 07:31 25.23273 55.40061 210 ft 139 kts 300°
2026-04-25 07:32 25.23791 55.39141 39 ft 139 kts 301°
2026-04-25 07:32 25.24198 55.38398 31 ft 80 kts 302°
2026-04-25 07:32 25.24357 55.38107 31 ft 21 kts 301°
2026-04-25 07:32 25.24471 55.37897 29 ft 32 kts 301°
2026-04-25 07:33 25.24581 55.37694 27 ft 28 kts 301°
2026-04-25 07:33 25.24705 55.37463 27 ft 43 kts 300°
2026-04-25 07:33 25.24781 55.37187 29 ft 34 kts 276°
2026-04-25 07:33 25.24783 55.37072 28 ft 0 kts 270°
2026-04-25 07:34 25.24783 55.37050 27 ft 7 kts 270°
2026-04-25 07:34 25.24770 55.36974 27 ft 12 kts 231°
2026-04-25 07:35 25.24682 55.36907 26 ft 19 kts 211°
2026-04-25 07:35 25.24551 55.36818 30 ft 25 kts 212°
2026-04-25 07:35 25.24430 55.36740 30 ft 20 kts 192°
2026-04-25 07:35 25.24327 55.36827 30 ft 23 kts 123°
2026-04-25 07:36 25.24224 55.36997 31 ft 30 kts 123°
2026-04-25 07:36 25.24109 55.37208 30 ft 30 kts 120°
2026-04-25 07:36 25.24032 55.37347 29 ft 5 kts 81°
2026-04-25 07:36 25.24051 55.37364 32 ft 6 kts 18°
2026-04-25 07:37 25.24082 55.37383 30 ft 6 kts 33°
2026-04-25 07:37 25.24107 55.37400 30 ft 6 kts 32°
2026-04-25 07:37 25.24110 55.37402 30 ft 0 kts 32°